     2.00           OBSERVATION DATA    G (GPS)             RINEX VERSION / TYPE
teqc 1998Oct7 Victoria Andreatta 19981202 00:33:41UTC       PGM / RUN BY / DATE
Linux 2.0.30|PentPro|gcc|Linux|486/DX+                      COMMENT
                                                            MARKER NAME
                                                            OBSERVER / AGENCY
0 TURBOROGUE 98.05.13                                       REC # / TYPE / VERS
unknown unknown                                             ANT # / TYPE
 -1286067.6639 -4719315.9620  4081989.5699                  APPROX POSITION XYZ
        0.0000        0.0000        0.0000                  ANTENNA: DELTA H/E/N
     1     1                                                WAVELENGTH FACT L1/2
     5    L1    L2    C1    P2    P1                        # / TYPES OF OBSERV
SNR is mapped to RINEX snr flag value [1,4-9]               COMMENT
SNR: >316 >100 >31.6 >10 >3.2 >0 bad=0                      COMMENT
L1 & L2: 9 8 7 6 5 4 1                                      COMMENT
  1998    12     1     0     0    0.000000      GPS         TIME OF FIRST OBS
                                                            END OF HEADER
 98 12  1  0  0  0.0000000  0  8G13G31G 7G27G15G19G18G26
   1288846.637 8   1004296.891 7  21426277.550    21426276.040
   4451006.451 5   3468315.690 4  22432653.964    22432650.830
  -5544087.674 4  -4320057.534 4  23884219.856    23884213.008
  -2775395.664 9  -2162643.437 9  20261773.851    20261771.607
  -5070926.791 4  -3951360.724 4  23889346.358    23889338.046
   2231296.586 9   1738673.804 8  20869637.404    20869634.948
   6861329.335 4   5346485.200 4  24284870.739    24284865.643
   -930039.635 4   -724705.753 4  24641766.850    24641759.969
 98 12  1  0  0 30.0000000  0  8G13G31G 7G27G15G19G18G26
   1327709.060 7   1034579.284 7  21433672.856    21433670.974
   4537709.880 5   3535876.790 4  22449153.032    22449149.683
  -5648133.963 4  -4401132.323 4  23864420.356    23864413.253
  -2809608.434 9  -2189302.703 9  20255263.423    20255261.051
  -5152231.371 4  -4014714.748 4  23873873.896    23873865.269
   2280317.339 9   1776871.815 8  20878965.757    20878963.297
   6975927.258 4   5435782.202 4  24306676.333    24306672.765
  -1012752.075 4   -789156.872 4  24626027.770    24626019.833
 98 12  1  0  1  0.0000000  0  8G13G31G 7G27G15G19G18G26
   1367110.559 7   1065281.738 7  21441170.456    21441168.708
   4624747.410 5   3603698.233 4  22465715.906    22465712.503
  -5752073.732 4  -4482124.104 4  23844640.817    23844634.322
  -2843395.838 9  -2215630.515 9  20248833.831    20248831.508
  -5233326.524 4  -4077905.560 4  23858442.401    23858434.130
   2329755.540 9   1815395.111 8  20888373.600    20888371.102
   7090542.234 4   5525092.482 4  24328488.047    24328483.467
  -1095161.979 4   -853372.261 4  24610345.600    24610337.658
 98 12  1  0  1 30.0000000  0  8G13G31G 7G27G15G19G18G26
   1407057.426 7   1096409.156 7  21448771.817    21448770.459
   4712130.293 5   3671788.788 4  22482344.188    22482341.104
  -5855900.353 4  -4563027.716 4  23824883.145    23824876.285
  -2876761.553 9  -2241629.737 9  20242484.484    20242482.101
  -5314209.688 4  -4140931.201 4  23843050.640    23843043.288
   2379634.378 9   1854261.757 9  20897865.222    20897862.660
   7205147.957 4   5614395.563 4  24350297.007    24350292.118
  -1177279.938 4   -917360.179 4  24594718.636    24594710.915
 98 12  1  0  2  0.0000000  0  8G13G31G 7G27G15G19G18G26
   1447547.869 7   1127960.142 6  21456476.727    21456475.702
   4799875.827 5   3740161.922 4  22499041.490    22499038.516
  -5959597.282 4  -4643830.272 4  23805150.122    23805143.335
  -2909723.664 9  -2267314.465 9  20236212.016    20236209.657
  -5394873.589 4  -4203785.978 4  23827700.644    23827693.119
   2429948.885 9   1893467.885 8  20907439.712    20907437.159
   7319729.100 4   5703679.473 4  24372102.060    24372096.789
  -1259113.517 4   -981126.505 4  24579146.199    24579138.398
 98 12  1  0  2 30.0000000  0  8G13G31G 7G27G15G19G18G26
   1488591.222 7   1159941.965 6  21464286.887    21464286.001
   4888009.267 5   3808837.319 4  22515812.807    22515809.476
  -6063137.069 4  -4724510.388 4  23785447.043    23785440.087
  -2942300.885 9  -2292699.278 9  20230012.738    20230010.535
  -5475301.066 4  -4266456.554 4  23812395.851    23812388.022
   2480691.606 9   1933007.688 8  20917095.563    20917093.090
   7434290.517 4   5792948.018 4  24393902.869    24393897.258
  -1340638.102 4  -1044652.035 4  24563632.323    24563624.935
 98 12  1  0  3  0.0000000  0  8G13G31G 7G27G15G19G18G26
   1530197.697 7   1192362.586 6  21472204.393    21472203.478
   4976534.181 5   3877817.768 4  22532658.593    22532655.103
  -6166512.974 4  -4805062.802 4  23765775.043    23765768.050
  -2974500.171 9  -2317789.597 9  20223885.295    20223883.166
  -5555480.950 4  -4328934.207 4  23797137.918    23797131.047
   2531864.757 9   1972882.890 8  20926833.500    20926831.109
   7548833.925 4   5882202.525 4  24415700.208    24415694.395
  -1421817.829 4  -1107908.847 4  24548184.015    24548177.116
 98 12  1  0  3 30.0000000  0  8G13G31G 7G27G15G19G18G26
   1572364.913 7   1225220.153 6  21480228.770    21480227.578
   5065436.358 5   3947092.185 4  22549575.803    22549572.655
  -6269730.305 4  -4885491.652 4  23746133.065    23746125.455
  -3006330.820 9  -2342592.669 9  20217828.121    20217825.906
  -5635414.811 4  -4391220.179 4  23781926.597    23781920.011
   2583437.081 9   2013069.138 8  20936647.266    20936644.925
   7663372.487 4   5971453.240 4  24437496.107    24437489.998
  -1502652.982 4  -1170897.177 4  24532801.207    24532794.895
 98 12  1  0  4  0.0000000  0  8G13G31G 7G27G15G19G18G26
   1615073.746 7   1258499.759 6  21488356.166    21488354.562
   5154695.909 5   4016645.087 4  22566561.430    22566558.694
  -6372811.161 4  -4965814.170 4  23726517.351    23726509.523
  -3037791.610 9  -2367107.540 9  20211841.412    20211839.063
  -5715108.536 4  -4453319.042 4  23766761.611    23766754.944
   2635383.929 9   2053547.221 8  20946532.471    20946530.238
   7777911.437 4   6060704.269 4  24459292.118    24459286.007
  -1583140.828 4  -1233614.867 4  24517485.145    24517478.669
 98 12  1  0  4 30.0000000  0  8G13G31G 7G27G15G19G18G26
   1658327.129 7   1292203.691 6  21496587.096    21496585.443
   5244303.072 5   4086468.843 4  22583612.972    22583609.977
  -6475749.021 4  -5046025.247 4  23706928.393    23706920.735
  -3068853.113 9  -2391311.279 9  20205930.656    20205928.207
  -5794555.414 4  -4515225.574 4  23751643.014    23751636.954
   2687723.635 9   2094331.425 8  20956492.342    20956489.965
   7892453.907 4   6149958.022 4  24481089.255    24481082.623
  -1663259.022 4  -1296044.525 4  24502238.996    24502232.749
 98 12  1  0  5  0.0000000  0  8G13G31G 7G27G15G19G18G26
   1702111.230 7   1326321.171 6  21504918.796    21504917.494
   5334232.905 5   4156544.030 4  22600725.679    22600723.208
  -6578548.745 4  -5126128.712 4  23687365.985    23687358.638
  -3099504.517 9  -2415195.460 9  20200097.840    20200095.471
  -5873758.738 4  -4576942.337 4  23736570.891    23736565.263
   2740452.131 9   2135418.579 8  20966526.390    20966523.886
   8006988.495 4   6239205.634 4  24502884.632    24502877.493
  -1743024.748 4  -1358199.529 4  24487059.930    24487053.478
 98 12  1  0  5 30.0000000  0  8G13G31G 7G27G15G19G18G26
   1746412.933 7   1360841.981 6  21513348.862    21513348.134
   5424467.210 5   4226856.462 4  22617896.832    22617894.050
  -6681217.798 4  -5206130.368 4  23667828.284    23667821.196
  -3129733.386 9  -2438750.392 9  20194345.365    20194343.135
  -5952722.024 4  -4638472.068 4  23721544.781    23721539.073
   2793552.930 9   2176795.839 7  20976631.091    20976628.593
   8121506.792 4   6328440.560 4  24524676.439    24524668.189
  -1822467.233 4  -1420102.653 4  24471942.526    24471936.046
 98 12  1  0  6  0.0000000  0  8G13G19G31G 7G27G15G18G26
   1791213.196 7   1395751.278 6  21521873.991    21521873.370
   2847032.513 9   2218468.252 7  20986807.866    20986805.567
   5515004.247 5   4297404.787 4  22635125.374    22635123.076
  -6783750.772 4  -5286026.002 4  23648316.129    23648309.759
  -3159519.991 9  -2461960.698 9  20188677.209    20188674.948
  -6031440.934 4  -4699811.379 4  23706565.021    23706559.238
   8235991.276 4   6417649.103 4  24546462.244    24546453.415
  -1901585.515 4  -1481753.123 4  24456886.671    24456880.077
 98 12  1  0  6 30.0000000  0  8G13G19G31G 7G27G15G18G26
   1836529.841 7   1431062.944 6  21530497.604    21530496.670
   2900893.721 9   2260438.038 7  20997057.122    20997054.921
   5605849.432 5   4368193.221 4  22652412.474    22652410.419
  -6886139.581 4  -5365809.325 4  23628832.327    23628826.405
  -3188866.020 9  -2484827.699 9  20183092.790    20183090.515
  -6109906.785 4  -4760953.491 4  23691633.120    23691627.613
   8350441.487 4   6506830.966 4  24568241.704    24568233.445
  -1980378.071 4  -1543149.771 4  24441892.136    24441886.070
 98 12  1  0  7  0.0000000  0  8G13G19G31G 7G27G15G18G26
   1882366.064 7   1466779.479 6  21539220.000    21539218.851
   2955133.253 9   2302702.622 6  21007378.511    21007376.319
   5697011.189 5   4439228.323 4  22669760.015    22669757.807
  -6988389.758 4  -5445484.628 4  23609374.458    23609369.046
  -3217766.593 9  -2507347.588 9  20177593.207    20177590.982
  -6188108.202 4  -4821889.559 4  23676751.800    23676746.377
   8464867.291 4   6595993.808 4  24590015.846    24590007.911
  -2058843.430 4  -1604291.448 4  24426960.262    24426954.242
 98 12  1  0  7 30.0000000  0  8G13G19G31G 7G27G15G18G26
   1928714.290 7   1502894.983 6  21548039.838    21548038.510
   3009747.839 9   2345259.453 6  21017771.332    21017769.142
   5788484.140 5   4510505.911 4  22687166.780    22687164.590
  -7090510.124 4  -5525058.802 4  23589941.643    23589935.967
  -3246227.909 9  -2529525.197 9  20172176.955    20172174.949
  -6266052.292 4  -4882625.095 4  23661919.280    23661914.185
   8579258.931 4   6685130.028 4  24611784.156    24611776.388
  -2136983.956 4  -1665180.007 4  24412090.461    24412084.140
 98 12  1  0  8  0.0000000  0  8G13G19G31G 7G27G15G18G26
   1975592.274 7   1539423.288 6  21556960.419    21556959.093
   3064760.395 9   2388126.389 6  21028239.923    21028237.774
   5880286.030 5   4582039.825 4  22704636.063    22704633.848
  -7192484.102 4  -5604518.920 4  23570536.876    23570530.908
  -3274252.431 9  -2551362.447 9  20166843.950    20166842.002
  -6343727.191 4  -4943150.871 4  23647138.133    23647132.854
   8693623.585 4   6774245.227 4  24633547.219    24633539.128
  -2214778.347 4  -1725798.810 4  24397286.814    24397280.568
 98 12  1  0  8 30.0000000  0  8G13G19G31G 7G27G15G18G26
   2023011.060 7   1576372.999 6  21565983.871    21565982.765
   3120180.977 9   2431311.266 6  21038786.279    21038783.997
   5972416.161 5   4653829.511 4  22722167.839    22722165.526
  -7294309.672 4  -5683863.408 4  23551160.140    23551154.052
  -3301846.964 9  -2572864.641 9  20161592.980    20161590.882
  -6421124.281 4  -5003460.175 4  23632409.570    23632404.519
   8807962.745 4   6863340.537 4  24655305.950    24655296.504
  -2292210.338 4  -1786135.222 4  24382551.597    24382545.401
 98 12  1  0  9  0.0000000  0  8G13G19G31G 7G27G15G18G26
   2070951.639 7   1613729.298 6  21575106.674    21575105.468
   3176022.239 9   2474823.936 6  21049412.650    21049410.297
   6064866.192 5   4725868.461 4  22739760.616    22739758.290
  -7395965.356 4  -5763075.530 4  23531815.696    23531809.535
  -3328993.749 9  -2594017.943 9  20156427.160    20156425.114
  -6498237.996 4  -5063548.659 4  23617734.865    23617730.231
   8922272.119 4   6952412.677 4  24677058.491    24677049.238
  -2369275.681 4  -1846185.935 4  24367885.464    24367880.516
 98 12  1  0  9 30.0000000  0  8G13G19G31G 7G27G15G18G26
   2119410.609 7   1651489.534 6  21584328.127    21584326.806
   3232287.810 9   2518667.238 6  21060119.628    21060117.509
   6157631.910 5   4798153.405 4  22757413.322    22757410.715
  -7497437.403 4  -5842144.582 4  23512506.198    23512500.176
  -3355695.306 9  -2614824.312 9  20151345.977    20151344.014
  -6575069.308 4  -5123417.076 4  23603114.300    23603109.633
   9036547.441 4   7041458.300 4  24698804.959    24698795.642
  -2445984.249 4  -1905958.655 4  24353289.130    24353283.297
 98 12  1  0 10  0.0000000  0  8G13G19G31G 7G27G15G18G26
   2168379.869 7   1689647.398 6  21593646.622    21593645.394
   3288966.761 9   2562832.657 6  21070905.214    21070903.243
   6250708.258 5   4870680.409 4  22775125.129    22775122.632
  -7598734.315 4  -5921077.176 4  23493229.877    23493223.839
  -3381974.174 9  -2635301.313 9  20146345.124    20146343.246
  -6651618.979 4  -5183066.039 4  23588547.365    23588542.597
   9150783.590 4   7130473.355 4  24720543.398    24720533.405
  -2522335.764 4  -1965453.112 4  24338759.918    24338753.998
 98 12  1  0 10 30.0000000  0  8G13G19G 7G27G15G31G18G26
   2217856.497 8   1728200.619 6  21603061.696    21603060.658
   3346046.524 9   2607310.395 6  21081766.934    21081765.023
  -7699848.039 4  -5999867.043 4  23473988.409    23473982.519
  -3407826.813 9  -2655446.188 9  20141425.396    20141423.475
  -6727882.377 4  -5242491.934 4  23574034.596    23574030.213
   6344097.316 5   4943451.066 4  22792896.518    22792893.843
   9264980.691 4   7219457.982 4  24742274.134    24742265.350
  -2598327.139 4  -2024666.960 4  24324299.019    24324293.435
 98 12  1  0 11  0.0000000  0  8G13G19G 7G27G15G31G18G26
   2267844.548 7   1767152.355 6  21612574.328    21612572.971
   3403523.663 9   2652097.774 6  21092704.306    21092702.483
  -7800769.907 4  -6078507.430 4  23454783.352    23454777.764
  -3433250.446 9  -2675256.775 9  20136587.409    20136585.452
  -6803856.841 4  -5301692.671 4  23559576.929    23559572.707
   6437808.474 5   5016472.702 4  22810729.285    22810726.792
   9379148.975 4   7308420.165 4  24763999.798    24763992.711
  -2673965.722 4  -2083605.899 4  24309904.968    24309899.661
 98 12  1  0 11 30.0000000  0  8G13G19G 7G27G15G31G18G26
   2318352.696 7   1806509.357 7  21622185.819    21622184.183
   3461378.455 9   2697179.430 6  21103713.729    21103712.033
  -7901514.391 4  -6157009.603 4  23435611.932    23435606.735
  -3458264.586 9  -2694748.276 9  20131827.533    20131825.533
  -6879542.082 4  -5360668.050 4  23545174.160    23545169.980
   6531837.602 5   5089742.121 4  22828622.379    22828619.957
   9493288.224 4   7397359.756 4  24785719.596    24785711.393
  -2749256.367 4  -2142273.704 4  24295577.335    24295572.721
 98 12  1  0 12  0.0000000  0  8G13G19G 7G27G15G31G18G26
   2369376.926 7   1846268.497 7  21631895.403    21631894.009
   3519606.446 9   2742551.893 6  21114794.416    21114792.664
  -8002081.395 4  -6235373.476 4  23416474.449    23416469.573
  -3482859.140 9  -2713912.824 9  20127147.259    20127145.327
  -6954934.087 4  -5419414.917 4  23530827.407    23530823.119
   6626167.077 5   5163245.567 4  22846572.805    22846570.175
   9607391.938 4   7486271.618 4  24807432.626    24807425.149
  -2824179.491 4  -2200655.156 4  24281319.796    24281315.091
 98 12  1  0 12 30.0000000  0  8G13G19G 7G27G15G31G18G26
   2420921.447 8   1886433.060 7  21641703.923    21641702.957
   3578220.181 9   2788224.937 7  21125948.235    21125946.428
  -8102458.415 4  -6313589.302 4  23397373.173    23397368.378
  -3507002.982 9  -2732726.163 9  20122552.656    20122550.837
  -7030026.848 4  -5477928.613 4  23516537.286    23516533.324
   6720784.431 5   5236973.324 4  22864577.906    22864575.251
   9721454.660 4   7575151.554 4  24829139.306    24829130.400
  -2898738.633 4  -2258752.985 4  24267131.720    24267126.068
 98 12  1  0 13  0.0000000  0  8G13G19G 7G27G15G31G18G26
   2472975.048 8   1926994.308 7  21651609.260    21651608.599
   3637225.048 9   2834202.758 7  21137176.370    21137174.440
  -8202646.947 4  -6391658.264 4  23378307.789    23378303.004
  -3530687.211 9  -2751181.365 9  20118045.644    20118043.748
  -7104819.140 4  -5536208.175 4  23502304.687    23502300.591
   6815661.113 5   5310903.184 4  22882632.453    22882629.398
   9835470.576 4   7663995.023 4  24850836.534    24850827.357
  -2972933.782 4  -2316567.188 4  24253012.396    24253007.245
 98 12  1  0 13 30.0000000  0  8G13G19G 7G27G15G31G18G26
   2525541.251 8   1967954.989 7  21661612.283    21661611.501
   3696631.518 9   2880493.512 7  21148481.212    21148479.052
  -8302650.422 5  -6469583.022 4  23359277.774    23359273.151
  -3553905.203 9  -2769273.266 9  20113627.328    20113625.407
  -7179308.013 4  -5594251.315 4  23488129.855    23488125.563
   6910783.525 5   5385024.512 4  22900733.792    22900730.832
   9949434.167 4   7752797.735 4  24872520.216    24872513.938
  -3046751.003 4  -2374086.948 4  24238965.326    24238959.978
 98 12  1  0 14  0.0000000  0  8G13G19G 7G27G15G31G18G26
   2578608.228 7   2009305.876 7  21671710.694    21671709.365
   3756451.475 9   2927106.469 7  21159864.509    21159862.458
  -8402470.665 5  -6547364.995 4  23340282.561    23340277.758
  -3576664.053 9  -2787007.393 9  20109296.378    20109294.541
  -7253501.288 5  -5652064.121 4  23474011.386    23474007.170
   7006147.658 4   5459334.192 4  22918880.947    22918877.941
  10063330.381 4   7841547.973 4  24894195.743    24894188.182
  -3120182.002 4  -2431305.723 4  24224991.799    24224985.788
 98 12  1  0 14 30.0000000  0  8G13G19G 7G27G15G31G18G26
   2632189.164 7   2051057.250 7  21681906.877    21681905.358
   3816691.082 9   2974046.429 7  21171327.831    21171325.809
  -8502094.127 5  -6624993.616 4  23321324.609    23321319.998
  -3598965.217 9  -2804384.881 9  20105052.510    20105050.758
  -7327381.209 5  -5709632.762 4  23459952.414    23459948.019
   7101786.792 4   5533858.166 4  22937080.617    22937077.643
  10177169.133 4   7930253.406 4  24915857.350    24915850.538
  -3193213.837 4  -2488213.483 4  24211094.176    24211088.682
 98 12  1  0 15  0.0000000  0  8G13G19G 7G27G15G31G18G26
   2686274.627 7   2093201.766 7  21692199.028    21692197.780
   3877337.679 9   3021303.522 7  21182868.420    21182866.490
  -8601535.465 5  -6702480.286 4  23302401.512    23302396.869
  -3620817.752 9  -2821412.787 9  20100894.121    20100892.403
  -7400946.102 5  -5766955.932 4  23445953.387    23445949.089
   7197705.262 4   5608599.776 4  22955333.428    22955330.303
  10290950.044 4   8018913.817 4  24937510.796    24937503.085
  -3265837.975 4  -2544803.600 4  24197274.063    24197268.421
 98 12  1  0 15 30.0000000  0  8G13G19G 7G27G15G31G18G26
   2740856.411 7   2135733.028 7  21702585.641    21702584.720
   3938389.830 9   3068876.634 7  21194486.301    21194484.309
  -8700808.938 5  -6779836.104 4  23283510.494    23283505.744
  -3642228.107 9  -2838096.141 9  20096819.925    20096818.176
  -7474192.841 5  -5824031.206 4  23432014.761    23432010.713
   7293917.250 4   5683570.117 4  22973642.017    22973638.680
  10404663.263 4   8107521.461 4  24959148.840    24959142.078
  -3338060.215 4  -2601080.517 4  24183530.640    24183525.130
 98 12  1  0 16  0.0000000  0  8G13G19G 7G27G15G31G18G26
   2795906.199 7   2178628.963 6  21713061.252    21713060.328
   3999814.392 9   3116739.938 7  21206175.080    21206172.908
  -8799921.371 5  -6857066.380 4  23264649.702    23264645.071
  -3663200.620 9  -2854438.320 9  20092828.907    20092827.142
  -7547126.165 4  -5880862.267 4  23418135.626    23418131.884
   7390411.909 4   5758760.745 4  22992004.602    22992000.980
  10518276.866 4   8196051.503 4  24980769.989    24980762.084
  -3409895.851 4  -2657056.200 4  24169860.498    24169855.337
 98 12  1  0 16 30.0000000  0  8G13G19G 7G27G15G31G18G26
   2851416.263 7   2221883.545 6  21723624.540    21723623.330
   4061589.174 9   3164876.139 7  21217930.484    21217928.287
  -8898878.069 5  -6934175.253 4  23245818.616    23245813.906
  -3683726.512 9  -2870432.488 9  20088922.902    20088921.236
  -7619741.216 4  -5937445.340 4  23404317.383    23404313.719
   7487182.191 4   5834166.142 4  23010419.468    23010415.693
  10631785.868 4   8284500.038 4  25002369.494    25002362.408
  -3481360.470 4  -2712742.779 4  24156261.253    24156255.916
 98 12  1  0 17  0.0000000  0  8G13G19G 7G27G15G31G18G26
   2907397.578 7   2265505.331 6  21734277.524    21734276.184
   4123734.342 9   3213300.950 7  21229756.287    21229754.053
  -8997672.261 5  -7011157.461 4  23227018.449    23227013.603
  -3703788.972 9  -2886065.537 9  20085105.067    20085103.686
  -7692028.535 4  -5993773.033 4  23390561.458    23390557.770
   7584220.131 4   5909780.095 4  23028885.439    23028881.827
  10745200.533 4   8372875.094 4  25023951.489    25023943.861
  -3552455.996 4  -2768141.742 4  24142732.044    24142726.293
 98 12  1  0 17 30.0000000  0  8G13G19G 7G27G15G31G18G26
   2963856.516 7   2309499.292 6  21745021.366    21745020.258
   4186248.504 9   3262013.292 7  21241652.360    21241650.111
  -9096279.558 5  -7087994.011 4  23208253.976    23208249.095
  -3723390.309 9  -2901339.267 9  20081374.792    20081373.616
  -7763983.574 4  -6049841.801 4  23376869.098    23376865.275
   7681529.297 4   5985605.407 4  23047402.905    23047399.282
  10858521.099 4   8461176.833 4  25045515.896    25045508.137
  -3623178.406 4  -2823249.951 4  24129273.504    24129268.436
 98 12  1  0 18  0.0000000  0  8G13G19G 7G27G15G31G18G26
   3020813.442 7   2353881.303 6  21755859.777    21755859.060
   4249132.123 9   3311013.525 7  21253618.778    21253616.492
  -9194676.871 5  -7164666.933 4  23189529.470    23189524.306
  -3742522.512 9  -2916247.440 9  20077733.838    20077732.714
  -7835598.094 4  -6105645.220 4  23363241.066    23363237.392
   7779114.618 4   6061645.896 4  23065972.732    23065969.265
  10971769.359 4   8549422.233 4  25067066.198    25067058.331
  -3693511.324 4  -2878054.671 4  24115889.736    24115884.560
 98 12  1  0 18 30.0000000  0  8G13G19G 7G27G15G31G18G26
   3078279.656 7   2398660.165 6  21766795.156    21766794.325
   4312399.201 9   3360312.558 7  21265658.153    21265655.825
  -9292852.035 4  -7241166.741 4  23170847.394    23170841.787
  -3761181.384 9  -2930786.782 9  20074183.160    20074182.128
  -7906869.024 4  -6161180.904 4  23349678.290    23349674.723
   7876987.173 4   6137910.220 4  23084597.503    23084593.887
  11084967.396 4   8637628.523 4  25088607.303    25088598.843
  -3763455.514 4  -2932556.473 4  24102579.451    24102574.191
 98 12  1  0 19  0.0000000  0  8G13G19G 7G27G15G31G18G26
   3136250.696 7   2443832.392 6  21777826.574    21777825.376
   4376055.656 9   3409915.001 7  21277771.400    21277769.069
  -9390797.822 4  -7317487.820 4  23152208.951    23152202.892
  -3779369.099 9  -2944958.988 9  20070722.094    20070721.039
  -7977801.440 4  -6216452.805 4  23336180.205    23336176.565
   7975133.650 4   6214387.988 4  23103273.882    23103270.207
  11198103.769 4   8725786.755 4  25110136.169    25110128.370
  -3833002.344 4  -2986748.643 4  24089345.431    24089340.167
 98 12  1  0 19 30.0000000  0  8G13G19G 7G27G15G31G18G26
   3194720.822 7   2489393.515 6  21788953.103    21788951.627
   4440100.614 9   3459820.175 7  21289958.695    21289956.447
  -9488501.082 4  -7393619.930 5  23133616.762    23133610.135
  -3797086.149 9  -2958764.443 9  20067350.675    20067349.466
  -8048388.843 4  -6271455.860 4  23322747.610    23322744.103
   8073556.576 4   6291081.147 4  23122002.935    23121999.552
  11311176.686 4   8813895.572 4  25131652.874    25131645.397
  -3902132.769 4  -3040616.330 4  24076190.024    24076184.349
 98 12  1  0 20  0.0000000  0  8G13G19G 7G27G15G31G18G26
   3253678.805 7   2535334.787 6  21800172.479    21800171.252
   4504532.343 9   3510026.731 7  21302219.563    21302217.250
  -9585970.704 4  -7469569.989 5  23115068.888    23115062.074
  -3814338.210 9  -2972207.569 9  20064067.825    20064066.522
  -8118632.370 4  -6326190.955 4  23309380.377    23309377.241
   8172240.411 4   6367977.604 4  23140782.053    23140778.591
  11424172.612 4   8901944.402 4  25153155.253    25153147.668
  -3970854.066 4  -3094165.245 4  24063112.358    24063107.787
 98 12  1  0 20 30.0000000  0  8G13G19G 7G27G15G31G18G26
   3313101.543 7   2581638.204 6  21811480.368    21811479.429
   4569348.109 8   3560532.540 7  21314553.544    21314551.187
  -9683224.398 5  -7545351.804 5  23096561.755    23096555.223
  -3831137.320 9  -2985297.745 9  20060871.112    20060869.816
  -8188540.531 4  -6380664.721 4  23296077.297    23296073.774
   8271156.059 4   6445054.687 4  23159604.842    23159601.621
  11537063.280 4   8989911.211 4  25174637.491    25174630.242
  -4039170.002 4  -3147398.265 4  24050112.402    24050107.756
 98 12  1  0 21  0.0000000  0  8G13G19G 7G27G15G31G18G26
   3372983.501 7   2628299.459 6  21822875.639    21822874.575
   4634551.634 8   3611340.495 7  21326961.415    21326958.814
  -9780278.321 5  -7620977.962 5  23078092.678    23078086.493
  -3847484.688 9  -2998035.916 9  20057760.338    20057758.886
  -8258110.314 4  -6434874.812 4  23282838.301    23282835.077
   8370273.960 4   6522289.393 4  23178466.433    23178463.441
  11649840.100 4   9077789.309 4  25196098.714    25196090.758
  -4107082.490 4  -3200316.938 4  24037188.665    24037184.681
 98 12  1  0 21 30.0000000  0  8G13G19G 7G27G15G31G18G26
   3433334.669 7   2675326.332 6  21834360.134    21834358.796
   4700146.772 8   3662453.599 7  21339443.839    21339441.338
  -9877124.980 4  -7696442.634 5  23059663.003    23059657.112
  -3863356.597 9  -3010403.597 9  20054740.040    20054738.492
  -8327320.325 4  -6488804.567 4  23269667.836    23269664.702
   8469615.355 4   6599698.254 4  23197370.389    23197367.417
  11762529.641 4   9165599.425 4  25217542.303    25217534.815
  -4174589.810 4  -3252919.894 4  24024342.586    24024338.139
 98 12  1  0 22  0.0000000  0  8G13G19G 7G27G15G31G18G26
   3494139.977 7   2722707.076 6  21845931.059    21845929.414
   4766112.826 8   3713855.734 7  21351996.726    21351994.310
  -9973789.153 4  -7771765.113 5  23041267.857    23041262.630
  -3878746.628 9  -3022395.787 9  20051811.288    20051809.885
  -8396183.324 4  -6542463.916 4  23256563.515    23256560.239
   8569157.367 4   6677263.425 4  23216312.679    23216309.585
  11875116.878 4   9253329.816 4  25238967.343    25238959.239
  -4241723.472 4  -3305231.689 4  24011567.444    24011562.523
 98 12  1  0 22 30.0000000  0  8G13G19G 7G27G15G31G18G26
   3555412.120 7   2770451.596 6  21857590.706    21857589.236
   4832463.619 8   3765557.664 7  21364622.897    21364620.556
 -10070259.618 5  -7846936.668 5  23022909.629    23022904.947
  -3893624.956 9  -3033989.244 9  20048979.940    20048978.601
  -8464683.188 4  -6595840.310 4  23243528.498    23243524.816
   8668912.142 4   6754994.389 4  23235295.098    23235292.076
  11987614.677 4   9340990.528 4  25260374.798    25260366.643
  -4308473.069 4  -3357244.218 4  23998865.304    23998861.337
 98 12  1  0 23  0.0000000  0  8G13G19G 7G27G15G31G18G26
   3617140.024 7   2818551.256 6  21869337.113    21869335.579
   4899181.168 8   3817545.379 7  21377318.748    21377316.290
 -10166533.501 5  -7921955.058 5  23004588.856    23004584.582
  -3907995.970 9  -3045187.394 9  20046245.150    20046243.797
  -8532817.918 4  -6648932.178 4  23230562.518    23230559.112
   8768894.704 4   6832902.852 4  23254321.281    23254318.304
  12100020.253 4   9428579.380 4  25281765.079    25281757.038
  -4374845.756 4  -3408963.075 4  23986234.273    23986230.665
 98 12  1  0 23 30.0000000  0  8G13G19G 7G27G15G31G18G26
   3679327.003 7   2867008.629 6  21881170.912    21881169.177
   4966261.695 7   3869815.932 6  21390083.670    21390081.186
 -10262584.706 5  -7996799.960 4  22986310.363    22986306.219
  -3921860.679 9  -3055991.022 9  20043606.665    20043605.571
  -8600573.168 4  -6701728.358 4  23217669.065    23217665.774
   8869134.059 4   6911011.409 4  23273396.193    23273393.276
  12212338.832 4   9516100.468 4  25303137.924    25303130.422
  -4440812.921 4  -3460365.929 4  23973681.755    23973677.596
 98 12  1  0 24  0.0000000  0  8G13G19G 7G27G15G31G18G26
   3741980.306 7   2915829.371 5  21893093.366    21893091.919
   5033722.234 7   3922382.595 6  21402920.901    21402918.413
 -10358395.963 5  -8071457.905 4  22968077.800    22968073.541
  -3935226.599 9  -3066405.986 9  20041063.112    20041062.187
  -8667936.019 4  -6754218.780 4  23204850.077    23204846.900
   8969626.150 4   6989316.900 4  23292519.305    23292516.330
  12324570.523 4   9603553.836 4  25324495.262    25324487.558
  -4506340.017 4  -3511425.880 4  23961212.426    23961207.337
 98 12  1  0 24 30.0000000  0  8G13G 7G27G15G19G31G18G26
   3805072.107 7   2964991.800 5  21905099.121    21905098.146
 -10453977.184 5  -8145936.612 4  22949888.932    22949884.751
  -3948135.203 9  -3076464.599 9  20038606.597    20038605.765
  -8734918.872 4  -6806413.095 4  23192104.076    23192100.504
   5101548.860 7   3975234.522 6  21415827.883    21415825.561
   9070367.013 4   7067816.248 4  23311689.659    23311686.777
  12436690.052 4   9690919.812 4  25345830.620    25345824.034
  -4571410.003 4  -3562129.648 4  23948830.150    23948825.091
 98 12  1  0 25  0.0000000  0  8G13G 7G27G15G19G31G18G26
   3868604.590 7   3014497.621 5  21917188.857    21917188.046
 -10549324.917 5  -8220233.396 4  22931744.907    22931740.605
  -3960592.200 9  -3086171.312 9  20036236.145    20036235.281
  -8801516.554 5  -6858307.282 4  23179430.701    23179427.501
   5169746.588 7   4028375.617 6  21428805.348    21428803.124
   9171362.683 4   7146514.136 4  23330908.534    23330905.749
  12548691.640 4   9778193.866 4  25367144.004    25367136.583
  -4635996.044 4  -3612456.316 4  23936539.260    23936534.505
 98 12  1  0 25 30.0000000  0  8G13G 7G27G15G19G31G18G26
   3932574.381 7   3064344.195 5  21929361.967    21929360.922
 -10644442.278 5  -8294350.686 4  22913644.632    22913640.161
  -3972602.051 9  -3095529.598 9  20033950.794    20033949.823
  -8867736.886 5  -6909907.436 4  23166829.194    23166826.285
   5238327.756 7   4081815.493 6  21441855.964    21441853.749
   9272580.310 4   7225384.962 4  23350169.708    23350166.984
  12660558.080 4   9865362.634 4  25388430.998    25388424.562
  -4700106.184 4  -3662412.157 4  23924339.640    23924334.296
 98 12  1  0 26  0.0000000  0  8G13G 7G27G15G19G31G18G26
   3996970.277 7   3114522.800 5  21941616.202    21941614.722
 -10739343.276 5  -8368299.399 4  22895585.458    22895581.024
  -3984159.054 9  -3104535.016 9  20031751.568    20031750.517
  -8933585.338 5  -6961217.814 4  23154298.563    23154295.634
   5307296.780 7   4135557.594 6  21454980.329    21454978.166
   9373998.182 4   7304411.808 4  23369469.204    23369465.892
  12772275.272 4   9952415.084 4  25409689.669    25409684.290
  -4763761.030 4  -3712013.222 4  23912226.572    23912220.732
 98 12  1  0 26 30.0000000  0  8G13G 7G27G15G19G31G18G26
   4061795.261 7   3165035.761 5  21953952.093    21953950.577
 -10834026.587 5  -8442078.502 4  22877567.841    22877563.451
  -3995247.830 9  -3113175.580 9  20029641.369    20029640.385
  -8999060.494 5  -7012237.317 4  23141839.108    23141836.191
   5376655.608 7   4189603.436 6  21468178.809    21468176.785
   9475627.298 4   7383603.264 4  23388808.669    23388805.546
  12883839.707 4  10039348.511 4  25430920.007    25430913.177
  -4826976.896 4  -3761272.202 4  23900197.152    23900190.907
 98 12  1  0 27  0.0000000  0  8G13G 7G27G15G19G31G18G26
   4127057.729 7   3215889.621 5  21966371.335    21966369.997
 -10928486.777 5  -8515683.760 5  22859592.697    22859588.387
  -4005861.973 9  -3121446.298 9  20027621.592    20027620.552
  -9064163.041 5  -7062966.487 4  23129450.307    23129447.545
   5446395.944 7   4243946.559 6  21481449.954    21481448.056
   9577443.984 4   7462940.891 4  23408183.740    23408180.588
  12995261.175 4  10126170.496 4  25452123.396    25452116.123
  -4889786.457 4  -3810214.587 4  23888244.136    23888238.491
 98 12  1  0 27 30.0000000  0  8G 7G27G15G13G19G31G18G26
 -11022706.737 5  -8589101.835 5  22841663.226    22841659.126
  -4015992.180 9  -3129339.924 9  20025693.906    20025692.766
  -9128878.300 5  -7113393.875 4  23117135.402    23117132.582
   4192760.617 7   3267086.657 5  21978874.166    21978872.874
   5516527.559 7   4298594.569 6  21494795.530    21494793.558
   9679445.892 4   7542422.860 4  23427594.372    23427590.901
  13106567.015 4  10212902.403 4  25473302.921    25473297.464
  -4952212.793 4  -3858858.358 4  23876364.852    23876359.090
 98 12  1  0 28  0.0000000  0  8G 7G27G15G13G19G31G18G26
 -11116698.744 5  -8662342.297 5  22823777.239    22823773.246
  -4025634.394 9  -3136853.294 9  20023859.024    20023857.920
  -9193206.493 5  -7163519.658 4  23104893.966    23104891.158
   4258903.870 7   3318626.834 5  21991460.697    21991459.448
   5587021.410 7   4353524.843 5  21508209.998    21508208.188
   9781642.428 4   7622056.507 4  23447041.625    23447038.464
  13217761.777 4  10299547.755 4  25494462.448    25494459.038
  -5014246.757 4  -3907196.366 4  23864560.043    23864553.896
 98 12  1  0 28 30.0000000  0  8G 7G27G15G13G19G31G18G26
 -11210447.041 5  -8735392.861 5  22805937.605    22805933.529
  -4034782.973 9  -3143982.016 9  20022118.046    20022116.816
  -9257138.396 5  -7213336.641 4  23092727.807    23092725.191
   4325508.413 7   3370526.457 5  22004135.020    22004133.663
   5657879.468 7   4408738.915 5  21521693.776    21521691.986
   9884053.069 4   7701856.978 4  23466530.007    23466526.688
  13328847.907 4  10386108.447 4  25515601.332    25515598.659
  -5075867.844 4  -3955212.643 4  23852833.625    23852827.700
 98 12  1  0 29  0.0000000  0  8G 7G27G15G13G19G31G18G26
 -11303951.581 5  -8808253.489 5  22788144.327    22788140.218
  -4043432.467 9  -3150721.844 9  20020472.139    20020470.821
  -9320667.055 5  -7262839.412 4  23080638.574    23080636.059
   4392569.627 7   3422781.933 5  22016896.397    22016894.902
   5729101.383 7   4464236.510 5  21535246.890    21535245.108
   9986666.282 4   7781815.267 4  23486056.479    23486053.173
  13439822.799 4  10472582.418 4  25536719.966    25536714.980
  -5137068.190 4  -4002901.092 4  23841187.508    23841181.843
 98 12  1  0 29 30.0000000  0  8G 7G27G15G13G19G31G18G26
 -11397216.020 5  -8880927.019 5  22770396.601    22770392.474
  -4051570.242 9  -3157062.930 9  20018923.487    20018922.328
  -9383783.028 5  -7312020.618 4  23068627.965    23068625.239
   4460085.853 7   3475391.969 5  22029744.249    22029742.875
   5800690.946 7   4520020.584 5  21548869.877    21548868.256
  10089493.185 4   7861940.076 4  23505623.740    23505620.271
  13550673.755 4  10558959.861 4  25557813.006    25557808.428
  -5197821.943 4  -4050241.535 4  23829626.469    23829620.465
 98 12  1  0 30  0.0000000  0  7G 7G15G13G19G27G31G26
 -11490254.996 5  -8953424.850 5  22752691.696    22752687.676
  -9446496.575 5  -7360888.249 4  23056693.713    23056691.014
   4528047.873 7   3528349.378 5  22042677.011    22042675.822
   5872628.468 7   4576075.793 5  21562559.154    21562557.480
  -4059204.727 9  -3163011.842 9  20017470.544    20017469.366
  10192531.327 4   7942229.492 4  23525231.386    23525227.820
  -5258110.800 4  -4097219.715 4  23818153.838    23818148.490
 98 12  1  0 30 30.0000000  0  7G 7G15G13G27G19G31G26
 -11583053.136 5  -9025735.007 5  22735032.681    22735028.849
  -9508796.643 5  -7409433.688 4  23044838.364    23044835.592
   4596445.002 7   3581645.829 5  22055692.550    22055691.595
  -4066332.184 9  -3168565.669 9  20016114.262    20016113.011
   5944933.867 7   4632417.663 5  21576318.562    21576316.635
  10295768.895 4   8022674.338 4  23544876.692    23544872.956
  -5317945.832 4  -4143844.277 4  23806767.502    23806761.933
 98 12  1  0 31  0.0000000  0  7G 7G15G27G13G19G31G26
 -11675623.849 5  -9097867.943 5  22717417.190    22717413.158
  -9570680.252 5  -7457654.611 4  23033062.342    23033059.557
  -4072954.328 9  -3173725.742 9  20014854.054    20014852.851
   4665260.030 7   3635267.911 5  22068787.620    22068786.841
   6017598.424 7   4689039.397 5  21590146.117    21590143.909
  10399192.145 4   8103263.864 4  23564557.451    23564553.799
  -5377328.616 4  -4190116.441 4  23795466.810    23795461.386
 98 12  1  0 31 30.0000000  0  7G 7G15G27G13G19G31G26
 -11767962.383 5  -9169819.946 5  22699845.691    22699841.579
  -9632145.308 5  -7505549.392 4  23021366.051    23021363.154
  -4079077.565 9  -3178497.057 9  20013688.875    20013687.541
   4734494.966 7   3689217.196 5  22081962.557    22081961.861
   6090615.971 7   4745936.190 5  21604041.075    21604038.702
  10502809.633 4   8184004.720 4  23584275.498    23584271.369
  -5436249.991 4  -4236029.055 4  23784254.134    23784249.688
 98 12  1  0 32  0.0000000  0  7G 7G15G13G19G27G31G26
 -11860064.820 5  -9241587.971 5  22682318.905    22682314.482
  -9693196.313 5  -7553121.535 4  23009748.382    23009745.408
   4804136.556 7   3743483.359 5  22095214.942    22095213.949
   6163983.297 7   4803105.537 5  21618002.490    21618000.047
  -4084710.095 9  -3182886.003 9  20012617.060    20012615.653
  10606612.267 4   8264889.879 4  23604028.407    23604024.223
  -5494721.609 4  -4281591.222 4  23773127.018    23773122.605
 98 12  1  0 32 30.0000000  0  7G 7G15G27G13G19G31G26
 -11951920.876 5  -9313164.001 5  22664839.095    22664834.238
  -9753824.292 5  -7600364.043 4  22998211.382    22998208.315
  -4089843.768 9  -3186886.233 9  20011640.128    20011638.835
   4874173.042 7   3798057.238 5  22108542.795    22108541.237
   6237703.048 7   4860549.500 5  21632030.828    21632028.518
  10710596.032 4   8345916.179 4  23623816.088    23623811.762
  -5552750.306 4  -4326808.254 4  23762084.094    23762079.699
 98 12  1  0 33  0.0000000  0  7G 7G15G13G19G27G31G26
 -12043535.195 5  -9384551.665 5  22647405.262    22647400.269
  -9814040.210 5  -7647285.462 4  22986752.653    22986749.512
   4944591.340 7   3852928.631 6  22121943.094    22121941.197
   6311753.737 7   4918251.342 5  21646122.256    21646120.003
  -4094490.439 9  -3190506.978 9  20010755.814    20010754.544
  10814759.011 4   8427082.139 4  23643637.670    23643633.315
  -5610333.088 4  -4371677.796 4  23751126.809    23751122.094
 98 12  1  0 33 30.0000000  0  7G 7G15G27G13G19G31G26
 -12134874.406 5  -9455724.954 5  22630023.988    22630019.037
  -9873826.740 5  -7693872.282 4  22975375.764    22975372.186
  -4098630.698 9  -3193733.116 9  20009967.900    20009966.587
   5015393.044 7   3908098.784 5  22135416.294    22135414.360
   6386158.267 7   4976228.907 5  21660280.942    21660278.624
  10919106.869 4   8508392.142 4  23663494.186    23663490.250
  -5667465.970 4  -4416196.772 4  23740254.091    23740249.979
 98 12  1  0 34  0.0000000  0  7G 7G15G13G27G19G31G26
 -12225927.899 5  -9526675.597 5  22612696.866    22612691.956
  -9933177.422 5  -7740119.470 4  22964081.832    22964078.164
   5086568.955 7   3963560.531 5  22148960.405    22148959.058
  -4102251.612 9  -3196554.570 9  20009278.779    20009277.463
   6460915.843 7   5034481.574 5  21674506.868    21674504.527
  11023628.804 4   8589837.781 4  23683384.169    23683380.034
  -5724157.003 4  -4460371.468 4  23729465.447    23729461.832
 98 12  1  0 34 30.0000000  0  7G 7G15G27G13G19G31G26
 -12316703.138 5  -9597409.421 5  22595422.635    22595418.037
  -9992098.591 5  -7786031.963 4  22952869.387    22952865.731
  -4105357.341 9  -3198974.580 9  20008687.727    20008686.465
   5158111.137 7   4019307.680 5  22162574.195    22162573.051
   6536020.467 7   5093004.667 5  21688798.866    21688796.560
  11128314.876 4   8671411.316 4  23703305.559    23703301.446
  -5780412.131 4  -4504206.496 4  23718760.781    23718756.909
 98 12  1  0 35  0.0000000  0  7G 7G15G13G27G19G31G26
 -12407198.210 5  -9667924.941 5  22578201.911    22578197.673
 -10050583.892 5  -7831604.817 4  22941739.785    22941736.304
   5230037.233 6   4075353.982 5  22176261.083    22176260.156
  -4107943.806 9  -3200989.969 9  20008195.491    20008194.300
   6611485.255 7   5151808.407 5  21703159.413    21703156.980
  11233171.298 4   8753117.607 4  23723258.810    23723255.250
  -5836213.402 4  -4547687.847 4  23708142.807    23708138.018
 98 12  1  0 35 30.0000000  0  7G 7G15G27G13G19G31G26
 -12497421.903 5  -9738229.003 5  22561032.778    22561028.902
 -10108629.750 5  -7876835.252 4  22930693.813    22930690.568
  -4110019.377 9  -3202607.259 9  20007800.567    20007799.270
   5302354.196 7   4131704.855 5  22190022.541    22190021.603
   6687313.104 7   5210895.050 5  21717589.066    21717586.330
  11338188.479 4   8834949.145 4  23743243.248    23743239.638
  -5891565.269 4  -4590819.016 4  23697608.980    23697604.928
 98 12  1  0 36  0.0000000  0  7G 7G15G13G27G19G31G26
 -12587381.149 5  -9808327.004 5  22543913.904    22543910.038
 -10166230.342 5  -7921718.731 4  22919732.630    22919729.446
   5375083.667 7   4188377.163 5  22203862.628    22203861.738
  -4111587.284 9  -3203828.967 9  20007502.139    20007500.825
   6763507.699 7   5270267.474 5  21732088.398    21732085.658
  11443373.649 4   8916911.624 4  23763259.169    23763255.715
  -5946449.434 4  -4633585.767 4  23687164.274    23687160.684
 98 12  1  0 36 30.0000000  0  7G 7G15G27G13G19G31G26
 -12677095.065 5  -9878233.831 5  22526841.918    22526838.047
 -10223386.151 5  -7966255.630 4  22908856.328    22908852.728
  -4112656.312 9  -3204661.937 9  20007298.645    20007297.451
   5448230.439 7   4245374.643 5  22217782.144    22217781.091
   6840076.859 7   5329931.765 5  21746658.920    21746656.120
  11548726.837 4   8999005.026 4  23783307.195    23783303.981
  -6000848.650 4  -4675974.618 4  23676812.074    23676808.810
 98 12  1  0 37  0.0000000  0  7G 7G15G13G27G19G31G26
 -12766578.254 5  -9947960.868 5  22509813.851    22509810.108
 -10280099.814 5  -8010447.996 4  22898063.739    22898060.498
   5521786.833 6   4302691.311 5  22231779.472    22231778.117
  -4113237.731 9  -3205114.951 9  20007188.032    20007186.758
   6917003.910 7   5389874.933 5  21761297.581    21761294.938
  11654237.157 4   9081220.866 4  23803385.313    23803381.890
  -6054766.641 4  -4717988.476 4  23666551.757    23666548.392
 98 12  1  0 37 30.0000000  0  7G 7G15G27G13G19G31G26
 -12855824.848 5 -10017503.553 5  22492830.651    22492827.092
 -10336365.425 5  -8054291.242 4  22887356.560    22887353.316
  -4113324.364 9  -3205182.419 9  20007171.582    20007170.219
   5595751.548 6   4360326.153 5  22245854.446    22245852.889
   6994287.866 7   5450096.212 5  21776004.231    21776001.651
  11759903.475 4   9163558.267 4  23823492.873    23823489.753
  -6108210.012 4  -4759632.481 4  23656381.593    23656378.817
 98 12  1  0 38  0.0000000  0  7G 7G15G27G13G19G31G26
 -12944827.962 5 -10086856.512 5  22475893.643    22475890.144
 -10392180.210 5  -8097783.191 4  22876735.402    22876732.126
  -4112898.757 9  -3204850.740 9  20007252.644    20007251.247
   5670118.310 6   4418274.283 5  22260005.928    22260004.285
   7071928.615 7   5510595.507 5  21790778.741    21790775.960
  11865734.621 4   9246024.104 4  23843631.920    23843628.163
  -6161165.332 4  -4800896.193 4  23646304.132    23646301.453
 98 12  1  0 38 30.0000000  0  7G 7G15G27G13G19G31G26
 -13033577.737 5 -10156012.055 5  22459004.875    22459001.381
 -10447544.281 5  -8140923.941 4  22866200.028    22866196.867
  -4111958.928 9  -3204118.369 9  20007431.435    20007430.002
   5744873.667 6   4476525.216 5  22274231.589    22274229.983
   7149911.648 7   5571361.515 5  21805618.524    21805615.778
  11971728.338 4   9328616.590 4  23863801.534    23863797.929
  -6213637.685 4  -4841783.573 4  23636319.059    23636316.191
 98 12  1  0 39  0.0000000  0  7G 7G15G27G13G19G31G26
 -13122060.738 5 -10224959.717 5  22442167.037    22442163.743
 -10502455.964 5  -8183712.187 4  22855750.739    22855747.400
  -4110510.342 9  -3202989.566 9  20007707.080    20007705.669
   5820008.725 6   4535072.024 5  22288529.501    22288528.105
   7228235.117 7   5632392.792 5  21820522.938    21820520.279
  12077874.918 4   9411328.177 4  23884000.930    23883996.756
  -6265642.729 4  -4882306.823 4  23626422.872    23626420.197
 98 12  1  0 39 30.0000000  0  7G 7G15G27G13G19G31G26
 -13210260.508 5 -10293686.678 5  22425382.964    22425380.088
 -10556912.458 5  -8226145.741 4  22845387.914    22845384.757
  -4108546.260 9  -3201459.080 9  20008080.797    20008079.373
   5895511.613 6   4593905.443 5  22302897.251    22302895.909
   7306902.146 7   5693691.773 5  21835492.562    21835490.274
  12184162.643 4   9494149.748 4  23904226.443    23904222.151
  -6317181.474 4  -4922466.742 4  23616615.762    23616612.348
 98 12  1  0 40  0.0000000  0  7G 7G15G27G13G19G31G26
 -13298177.588 5 -10362193.362 5  22408652.657    22408649.822
 -10610913.597 5  -8268224.473 4  22835111.543    22835108.757
  -4106060.690 9  -3199522.238 9  20008553.632    20008552.285
   5971374.336 6   4653019.246 5  22317333.300    22317332.062
   7385901.580 7   5755249.772 5  21850525.615    21850523.646
  12290570.410 4   9577064.835 4  23924474.966    23924470.828
  -6368256.240 4  -4962265.117 4  23606896.259    23606892.746
 98 12  1  0 40 30.0000000  0  7G 7G27G15G13G19G31G26
 -13385812.066 5 -10430479.836 5  22391976.244    22391973.189
  -4103046.170 9  -3197173.230 9  20009127.294    20009126.165
 -10664448.795 5  -8309940.138 4  22824923.925    22824921.467
   6047601.844 6   4712417.298 5  22331838.586    22331837.523
   7465240.330 7   5817072.168 5  21865623.315    21865621.495
  12397092.055 4   9660068.700 4  23944745.512    23944740.698
  -6418870.451 4  -5001704.631 4  23597264.724    23597261.208
 98 12  1  0 41  0.0000000  0  7G 7G15G27G13G19G31G26
 -13473179.354 5 -10498558.109 5  22375350.596    22375347.526
 -10717517.635 5  -8351292.407 4  22814825.184    22814822.752
  -4099496.452 9  -3194407.187 9  20009802.731    20009801.553
   6124188.180 6   4772094.962 5  22346412.198    22346411.377
   7544919.695 7   5879159.978 5  21880785.624    21880783.940
  12503725.681 4   9743159.852 4  23965037.204    23965032.864
  -6469018.183 4  -5040780.666 4  23587721.938    23587718.249
 98 12  1  0 41 30.0000000  0  7G 7G27G15G13G19G31G26
 -13560274.426 5 -10566424.270 5  22358776.909    22358773.791
  -4095385.753 9  -3191204.017 9  20010584.987    20010583.722
 -10770112.030 5  -8392274.978 4  22804816.721    22804814.246
   6201140.246 6   4832057.613 5  22361055.477    22361054.628
   7624932.626 7   5941507.711 5  21896011.790    21896009.923
  12610481.520 4   9826346.164 4  23985352.108    23985347.285
  -6518695.153 4  -5079489.869 4  23578268.436    23578264.587
 98 12  1  0 42  0.0000000  0  7G 7G15G27G13G19G31G26
 -13647095.178 5 -10634076.684 5  22342255.358    22342252.061
 -10822219.256 5  -8432877.930 4  22794901.098    22794898.202
  -4090717.975 9  -3187566.761 9  20011473.147    20011471.890
   6278481.972 6   4892323.890 5  22375773.114    22375772.317
   7705290.880 7   6004124.525 5  21911303.512    21911301.595
  12717390.464 4   9909651.804 4  24005695.986    24005691.488
  -6567881.785 4  -5117817.005 4  23568908.542    23568904.451
 98 12  1  0 42 30.0000000  0  7G 7G27G15G13G19G31G26
 -13733635.627 5 -10701510.684 5  22325787.170    22325783.557
  -4085518.411 9  -3183515.127 9  20012462.498    20012461.252
 -10873836.440 5  -8473099.030 4  22785078.516    22785075.698
   6356204.489 6   4952886.886 5  22390563.615    22390562.381
   7785994.310 7   6067010.307 5  21926660.936    21926659.061
  12824472.350 4   9993092.180 4  24026073.413    24026067.894
  -6616566.677 4  -5155753.175 4  23559644.102    23559639.882
 98 12  1  0 43  0.0000000  0  7G 7G15G27G13G19G31G26
 -13819882.240 5 -10768715.725 5  22309375.031    22309371.254
 -10924964.547 5  -8512939.035 4  22775349.091    22775346.058
  -4079801.848 9  -3179060.638 9  20013550.282    20013549.144
   6434294.249 6   5013736.040 5  22405423.790    22405422.418
   7867034.218 7   6130158.277 5  21942082.235    21942080.288
  12931717.884 4  10076660.111 4  24046481.495    24046476.388
  -6664748.869 4  -5193297.639 4  23550474.955    23550471.025
 98 12  1  0 43 30.0000000  0  7G 7G27G15G13G19G31G26
 -13905811.342 6 -10835673.359 5  22293023.288    22293019.508
  -4073564.377 9  -3174200.246 9  20014737.298    20014736.269
 -10975593.982 5  -8552390.462 4  22765714.710    22765711.539
   6512750.355 6   5074870.658 5  22420353.465    22420352.424
   7948416.480 7   6193573.012 5  21957568.790    21957566.653
  13039123.819 4  10160353.009 4  24066919.803    24066915.085
  -6712427.899 4  -5230450.048 4  23541402.028    23541397.925
 98 12  1  0 44  0.0000000  0  7G 7G27G15G13G19G31G26
 -13991436.834 6 -10902394.417 5  22276729.235    22276725.670
  -4066835.855 9  -3168957.219 9  20016017.737    20016016.671
 -11025736.959 5  -8591462.831 4  22756172.776    22756169.453
   6591547.447 6   5136270.984 5  22435347.917    22435347.332
   8030132.126 7   6257247.524 5  21973118.800    21973116.811
  13146673.929 4  10244158.255 4  24087386.289    24087380.757
  -6759599.908 4  -5267207.370 4  23532425.566    23532421.714
 98 12  1  0 44 30.0000000  0  7G 7G27G15G13G19G31G26
 -14076771.020 6 -10968888.482 5  22260490.387    22260487.177
  -4059603.464 9  -3163321.566 9  20017393.904    20017392.691
 -11075401.430 5  -8630162.336 4  22746721.967    22746718.782
   6670661.144 6   5197918.015 5  22450402.656    22450402.209
   8112168.555 7   6321171.993 5  21988729.728    21988727.834
  13254329.528 4  10328045.704 4  24107872.967    24107866.599
  -6806280.240 4  -5303581.558 4  23523542.623    23523538.669
 98 12  1  0 45  0.0000000  0  7G 7G27G15G13G19G31G26
 -14161820.292 6 -11035160.535 5  22244305.865    22244303.033
  -4051843.776 9  -3157275.032 9  20018870.467    20018869.262
 -11124586.959 5  -8668488.638 5  22737362.086    22737358.853
   6750090.651 6   5259811.127 5  22465517.594    22465517.108
   8194534.932 7   6385353.568 5  22004403.493    22004401.557
  13362075.015 4  10412003.157 4  24128375.502    24128370.286
  -6852475.797 4  -5339578.003 4  23514752.043    23514747.855
 98 12  1  0 45 30.0000000  0  7G 7G27G15G13G19G31G26
 -14246586.073 6 -11101211.694 5  22228175.129    22228172.776
  -4043544.684 9  -3150808.182 9  20020449.736    20020448.525
 -11173286.698 5  -8706436.398 5  22728094.705    22728091.527
   6829850.674 6   5321961.785 5  22480695.636    22480694.737
   8277242.175 7   6449800.754 5  22020142.215    22020140.318
  13469926.112 4  10496042.937 4  24148899.840    24148894.419
  -6898186.684 4  -5375196.791 4  23506053.109    23506049.128
 98 12  1  0 46  0.0000000  0  7G 7G27G15G13G19G31G26
 -14331080.527 6 -11167051.431 5  22212096.157    22212094.004
  -4034718.630 9  -3143930.715 9  20022129.265    20022127.936
 -11221505.220 5  -8744009.185 5  22718918.971    22718915.963
   6909937.523 6   5384367.109 5  22495935.745    22495934.743
   8360278.124 6   6514504.073 5  22035943.439    22035941.479
  13577870.999 4  10580155.754 4  24169440.508    24169435.615
  -6943415.663 4  -5410440.063 4  23497446.350    23497442.353
 98 12  1  0 46 30.0000000  0  7G 7G27G15G13G19G31G26
 -14415281.009 6 -11232662.095 5  22196073.442    22196071.006
  -4025355.303 9  -3136634.594 9  20023910.902    20023909.770
 -11269228.324 5  -8781195.937 5  22709837.169    22709834.561
   6990368.457 6   5447040.547 5  22511241.267    22511240.146
   8443646.227 6   6579466.212 5  22051807.584    22051805.596
  13685912.662 4  10664344.069 4  24190000.411    24189995.716
  -6988166.719 4  -5445310.921 4  23488930.669    23488926.472
 98 12  1  0 47  0.0000000  0  7G 7G27G15G13G19G31G26
 -14499167.373 6 -11298027.990 5  22180110.394    22180107.733
  -4015467.300 9  -3128929.632 9  20025792.417    20025791.408
 -11316451.365 5  -8817993.030 5  22700850.742    22700848.356
   7071143.349 6   5509982.008 5  22526612.141    22526611.079
   8527348.102 6   6644688.437 5  22067735.672    22067733.529
  13794064.792 4  10748618.445 4  24210581.220    24210576.564
  -7032441.052 4  -5479810.303 4  23480505.046    23480501.101
 98 12  1  0 47 30.0000000  0  7G 7G27G15G13G19G31G26
 -14582734.602 6 -11363145.211 5  22164208.082    22164205.031
  -4005057.417 9  -3120818.011 9  20027773.438    20027772.267
 -11363167.384 5  -8854395.040 5  22691960.964    22691958.341
   7152264.501 6   5573193.282 5  22542048.998    22542048.075
   8611368.082 6   6710158.534 5  22083724.353    22083722.031
  13902330.542 4  10832981.372 4  24231183.559    24231179.416
  -7076230.258 4  -5513931.659 4  23472172.161    23472168.019
 98 12  1  0 48  0.0000000  0  7G 7G27G15G13G19G31G26
 -14665996.263 6 -11428024.331 5  22148363.999    22148360.727
  -3994130.278 9  -3112303.333 9  20029852.828    20029851.673
 -11409377.816 5  -8890403.085 5  22683167.458    22683164.758
   7233723.003 6   5636667.426 5  22557550.042    22557549.077
   8695697.742 6   6775869.938 5  22099771.827    22099769.560
  14010689.659 4  10917417.106 4  24251803.337    24251799.311
  -7119524.500 4  -5547667.325 4  23463933.506    23463929.403
 98 12  1  0 48 30.0000000  0  7G 7G27G15G13G19G31G26
 -14748952.817 6 -11492665.702 5  22132578.010    22132574.594
  -3982682.523 9  -3103382.980 9  20032031.247    20032030.099
 -11455077.563 5  -8926013.196 5  22674470.977    22674468.353
   7315514.987 6   5700401.427 5  22573114.513    22573113.598
   8780345.516 6   6841829.227 5  22115879.694    22115877.517
  14119150.567 4  11001932.119 4  24272442.692    24272438.857
  -7162316.906 4  -5581011.949 4  23455790.260    23455785.919
 98 12  1  0 49  0.0000000  0  7G 7G27G15G13G19G31G26
 -14831633.547 6 -11557092.150 5  22116844.256    22116840.924
  -3970715.076 9  -3094057.671 9  20034308.586    20034307.361
 -11500276.150 5  -8961232.796 5  22665870.081    22665867.295
   7397620.650 6   5764379.854 5  22588738.829    22588737.907
   8865305.773 6   6908032.008 5  22132047.107    22132044.907
  14227710.872 4  11086524.594 4  24293100.874    24293097.628
  -7204612.249 4  -5613969.243 4  23447741.561    23447737.586
 98 12  1  0 49 30.0000000  0  7G 7G27G15G13G19G31G26
 -14914049.281 6 -11621312.109 6  22101160.927    22101157.938
  -3958220.654 9  -3084321.732 9  20036686.159    20036685.056
 -11544968.404 5  -8996057.854 5  22657365.393    22657362.477
   7480044.749 6   5828606.416 5  22604423.849    22604422.710
   8950582.959 6   6974481.742 5  22148274.800    22148272.682
  14336375.562 4  11171198.423 4  24313779.168    24313775.894
  -7246393.973 4  -5646526.317 4  23439790.688    23439786.816
 98 12  1  0 50  0.0000000  0  7G 7G27G15G13G19G31G26
 -14996182.070 6 -11685311.591 6  22085531.429    22085528.747
  -3945200.115 9  -3074175.832 9  20039163.952    20039162.785
 -11589150.272 5  -9030485.211 5  22648957.987    22648955.018
   7562784.451 6   5893078.900 5  22620168.696    22620167.512
   9036192.585 6   7041190.521 5  22164565.823    22164563.695
  14445151.896 4  11255959.218 4  24334478.736    24334475.132
  -7287651.210 4  -5678674.703 4  23431939.699    23431935.547
 98 12  1  0 50 30.0000000  0  7G 7G27G15G13G19G31G26
 -15078013.045 6 -11749075.896 6  22069959.440    22069956.976
  -3931646.379 9  -3063614.456 9  20041743.097    20041741.767
 -11632822.168 5  -9064515.187 5  22640647.451    22640644.441
   7645818.704 6   5957780.907 5  22635969.553    22635968.449
   9122123.962 6   7108150.019 5  22180917.801    22180915.925
  14554049.338 4  11340814.386 4  24355200.910    24355198.094
  -7328400.175 4  -5710427.041 4  23424185.781    23424181.135
 98 12  1  0 51  0.0000000  0  7G 7G27G15G13G19G31G26
 -15159543.868 6 -11812606.315 6  22054444.445    22054442.170
  -3917550.734 9  -3052630.812 9  20044425.441    20044424.161
 -11675989.372 5  -9098151.902 5  22632432.837    22632430.015
   7729140.199 6   6022706.738 5  22651825.065    22651824.016
   9208360.790 6   7175347.536 5  22197328.129    22197326.391
  14663052.323 4  11425751.827 4  24375943.226    24375940.209
  -7368654.812 4  -5741794.184 4  23416525.477    23416521.230
 98 12  1  0 51 30.0000000  0  7G 7G27G15G13G19G31G26
 -15240758.940 6 -11875890.698 6  22038989.511    22038987.256
  -3902909.087 9  -3041221.712 9  20047211.580    20047210.426
 -11718647.422 5  -9131391.881 5  22624315.312    22624312.409
   7812755.845 5   6087861.777 5  22667736.651    22667735.478
   9294888.198 6   7242771.477 5  22213793.893    22213791.947
  14772139.908 4  11510755.162 4  24396701.707    24396699.194
  -7408401.004 4  -5772765.139 4  23408961.875    23408958.130
 98 12  1  0 52  0.0000000  0  7G 7G27G15G13G19G31G26
 -15321649.179 6 -11938921.962 6  22023596.496    22023594.126
  -3887709.995 9  -3029378.240 9  20050103.925    20050102.749
 -11760785.919 5  -9164227.012 5  22616296.573    22616293.980
   7896667.596 5   6153247.547 5  22683704.323    22683703.336
   9381700.755 6   7310417.609 5  22230313.907    22230311.886
  14881304.908 4  11595818.811 4  24417475.241    24417472.434
  -7447641.001 4  -5803341.657 4  23401494.580    23401491.081
 98 12  1  0 52 30.0000000  0  7G 7G27G15G13G19G31G26
 -15402238.100 6 -12001718.431 6  22008260.904    22008258.232
  -3871941.670 9  -3017091.208 9  20053104.398    20053103.289
 -11802399.261 5  -9196652.933 5  22608377.714    22608375.432
   7980884.099 5   6218870.785 4  22699730.100    22699729.306
   9468793.293 6   7378281.912 5  22246887.095    22246885.183
  14990536.249 4  11680934.167 4  24438261.026    24438258.624
  -7486385.395 5  -5833531.996 4  23394122.065    23394118.509
 98 12  1  0 53  0.0000000  0  7G 7G27G15G13G19G31G26
 -15482531.567 6 -12064284.679 6  21992981.343    21992978.717
  -3855614.224 9  -3004368.497 9  20056211.358    20056210.386
 -11843475.862 5  -9228660.620 5  22600561.057    22600558.604
   8065432.118 5   6284752.348 4  22715818.968    22715818.304
   9556183.584 6   7446378.228 5  22263516.953    22263515.186
  15099832.220 4  11766099.839 4  24459059.179    24459056.629
  -7524606.473 5  -5863314.552 4  23386848.754    23386845.409
 98 12  1  0 53 30.0000000  0  7G 7G27G15G13G19G31G26
 -15562520.199 6 -12126613.392 6  21977759.882    21977757.206
  -3838749.276 9  -2991226.954 9  20059420.744    20059419.526
 -11884010.002 5  -9260245.608 5  22592847.689    22592845.028
   8150312.500 5   6350892.892 4  22731971.363    22731970.528
   9643889.738 6   7514720.664 5  22280207.044    22280205.169
  15209192.911 4  11851315.935 4  24479870.020    24479867.690
  -7562285.815 5  -5892674.998 4  23379678.313    23379675.386
 98 12  1  0 54  0.0000000  0  7G 7G27G15G13G19G31G26
 -15642207.729 6 -12188707.481 6  21962595.611    21962592.854
  -3821363.959 9  -2977679.928 9  20062729.104    20062727.812
 -11923998.034 5  -9291405.058 5  22585238.161    22585235.410
   8235504.409 5   6417276.182 4  22748182.909    22748181.948
   9731930.314 6   7583323.685 5  22296960.584    22296958.672
  15318635.364 4  11936595.838 4  24500695.987    24500693.716
  -7599442.954 5  -5921628.546 4  23372607.256    23372604.078
 98 12  1  0 54 30.0000000  0  7G 7G27G15G13G19G31G26
 -15721585.978 6 -12250560.574 6  21947490.441    21947487.700
  -3803469.413 9  -2963736.102 9  20066134.319    20066133.088
 -11963446.303 5  -9322143.906 5  22577731.358    22577728.323
   8320993.749 5   6483891.230 5  22764451.032    22764450.024
   9820307.199 6   7652188.768 5  22313778.133    22313776.014
  15428147.374 4  12021929.947 4  24521535.110    24521533.502
  -7636086.431 4  -5950181.845 4  23365634.250    23365630.706
 98 12  1  0 55  0.0000000  0  7G 7G15G27G13G19G31G26
 -15800628.318 6 -12312151.921 6  21932449.091    21932446.369
 -12002351.483 5  -9352459.564 5  22570327.935    22570324.720
  -3785078.331 9  -2949405.366 9  20069633.928    20069632.798
   8406770.939 5   6550730.581 5  22780773.950    22780773.108
   9909023.317 6   7721318.188 5  22330660.303    22330657.943
  15537730.590 4  12107319.508 4  24542388.676    24542386.210
  -7672204.816 5  -5978325.992 4  23358761.256    23358757.867
 98 12  1  0 55 30.0000000  0  7G 7G15G27G13G19G31G26
 -15879343.732 6 -12373488.523 6  21917470.001    21917467.300
 -12040726.192 5  -9382361.867 5  22563025.471    22563022.255
  -3766182.660 9  -2934681.440 9  20073229.540    20073228.560
   8492802.477 5   6617768.131 5  22797145.148    22797144.556
   9998053.817 6   7790692.580 5  22347602.400    22347599.847
  15647367.359 4  12192750.833 4  24563251.868    24563249.206
  -7707828.676 5  -6006084.798 4  23351982.151    23351979.038
 98 12  1  0 56  0.0000000  0  7G 7G15G27G13G19G31G26
 -15957747.014 6 -12434581.904 6  21902550.420    21902547.770
 -12078573.216 5  -9411852.983 5  22555823.303    22555820.129
  -3746758.537 9  -2919545.734 9  20076925.794    20076924.859
   8579080.482 5   6684997.735 4  22813563.273    22813562.462
  10087372.738 5   7860291.717 5  22364599.085    22364596.673
  15757065.088 4  12278229.658 4  24584126.709    24584123.786
  -7742969.805 5  -6033467.447 4  23345294.754    23345291.972
 98 12  1  0 56 30.0000000  0  7G 7G15G27G13G19G31G26
 -16035833.355 6 -12495428.320 6  21887691.164    21887688.358
 -12115893.513 5  -9440933.660 5  22548721.326    22548718.230
  -3726792.574 9  -2903987.815 9  20080725.176    20080724.416
   8665616.542 5   6752428.414 4  22830030.619    22830029.502
  10176963.160 5   7930102.420 5  22381647.443    22381645.057
  15866812.917 4  12363747.554 4  24605010.469    24605007.928
  -7777609.782 5  -6060459.589 4  23338702.843    23338700.176
 98 12  1  0 57  0.0000000  0  7G 7G15G27G13G19G31G26
 -16113617.293 7 -12556039.094 6  21872889.315    21872886.615
 -12152681.029 5  -9469599.181 5  22541720.730    22541717.726
  -3706279.437 9  -2888003.528 9  20084628.579    20084627.821
   8752405.581 5   6820056.222 4  22846546.053    22846544.911
  10266829.334 5   8000127.992 5  22398748.346    22398746.070
  15976634.823 4  12449323.162 4  24625909.065    24625906.607
  -7811735.607 5  -6087051.089 4  23332208.512    23332205.829
 98 12  1  0 57 30.0000000  0  7G 7G15G27G13G19G31G26
 -16191094.332 7 -12616410.729 6  21858145.649    21858143.024
 -12188922.892 5  -9497839.521 5  22534823.886    22534820.682
  -3685195.513 9  -2871574.472 9  20088640.704    20088639.902
   8839448.070 5   6887881.520 4  22863109.597    22863108.599
  10356985.065 5   8070379.190 5  22415904.492    22415902.251
  16086539.127 4  12534962.982 4  24646823.297    24646820.171
  -7845336.984 5  -6113233.926 4  23325814.231    23325811.333
 98 12  1  0 58  0.0000000  0  7G 7G15G13G27G19G31G26
 -16268248.619 7 -12676530.869 6  21843463.647    21843461.095
 -12224613.404 5  -9525650.247 5  22528032.174    22528028.895
   8926749.998 5   6955908.983 5  22879722.500    22879721.534
  -3663556.071 9  -2854712.547 9  20092758.705    20092757.730
  10447438.108 5   8140862.057 5  22433117.206    22433115.075
  16196526.470 4  12620667.547 4  24667753.050    24667750.298
  -7878401.669 4  -6138998.548 4  23319522.095    23319519.131
 98 12  1  0 58 30.0000000  0  7G 7G15G27G13G19G31G26
 -16345061.270 7 -12736384.794 6  21828846.551    21828844.032
 -12259747.721 5  -9553027.573 5  22521346.212    22521342.860
  -3641377.787 9  -2837430.745 9  20096979.090    20096978.022
   9014302.634 5   7024131.809 5  22896383.155    22896382.142
  10538201.107 5   8211586.446 5  22450388.843    22450386.791
  16306575.611 4  12706420.229 4  24688694.798    24688691.515
  -7910937.870 4  -6164351.358 4  23313330.556    23313327.634
 98 12  1  0 59  0.0000000  0  7G 7G15G13G27G19G31G26
 -16421529.540 7 -12795970.367 6  21814294.860    21814292.462
 -12294326.843 5  -9579972.287 5  22514765.992    22514762.649
   9102101.524 5   7092546.522 5  22913090.764    22913089.581
  -3618666.954 9  -2819733.969 9  20101300.725    20101299.597
  10629275.385 5   8282553.395 5  22467719.772    22467717.898
  16416677.180 4  12792213.784 4  24709646.114    24709642.860
  -7942957.944 5  -6189301.983 4  23307237.346    23307234.322
 98 12  1  0 59 30.0000000  0  7G 7G15G27G13G19G31G26
 -16497638.287 7 -12855275.789 6  21799811.687    21799809.491
 -12328344.983 5  -9606479.874 5  22508292.556    22508289.592
  -3595412.462 9  -2801613.561 9  20105725.856    20105724.822
   9190169.748 5   7161171.107 5  22929849.764    22929848.079
  10720637.779 5   8353744.850 5  22485105.520    22485103.520
  16526810.067 4  12878031.671 4  24730603.411    24730600.231
  -7974458.692 5  -6213847.928 4  23301243.119    23301239.782
 98 12  1  1  0  0.0000000  0  7G 7G15G13G27G19G31G26
 -16573382.909 7 -12914297.473 6  21785398.070    21785396.102
 -12361797.127 5  -9632546.433 5  22501926.858    22501923.849
   9278525.478 5   7230019.724 5  22946663.386    22946661.918
  -3571611.134 9  -2783067.048 9  20110254.939    20110253.964
  10812275.815 5   8425151.084 5  22502543.554    22502541.363
  16636979.093 4  12963877.760 4  24751568.035    24751564.780
  -8005440.418 5  -6237989.440 4  23295347.193    23295344.061
 98 12  1  1  0 30.0000000  0  7G 7G15G13G27G19G31G26
 -16648785.687 8 -12973052.782 6  21771049.398    21771047.322
 -12394683.980 5  -9658172.512 5  22495668.764    22495665.817
   9367169.339 5   7299092.864 5  22963531.994    22963530.790
  -3547250.965 9  -2764085.075 9  20114890.588    20114889.440
  10904177.013 5   8496762.382 5  22520031.726    22520029.455
  16747181.593 4  13049750.020 4  24772538.022    24772535.524
  -8035901.509 5  -6261725.254 4  23289550.597    23289547.321
 98 12  1  1  1  0.0000000  0  7G 7G15G13G27G19G31G26
 -16723866.586 8 -13031557.278 6  21756761.831    21756759.693
 -12427010.941 5  -9683362.311 5  22489517.133    22489514.165
   9456106.326 5   7368394.418 5  22980456.417    22980455.303
  -3522324.698 9  -2744661.988 9  20119633.915    20119632.847
  10996331.189 5   8568570.807 5  22537568.009    22537565.711
  16857426.143 4  13135655.009 4  24793516.118    24793514.329
  -8065827.595 5  -6285044.174 4  23283855.776    23283852.283
 98 12  1  1  1 30.0000000  0  7G 7G15G13G27G19G31G26
 -16798626.028 8 -13089811.286 6  21742535.747    21742533.499
 -12458767.180 5  -9708107.396 4  22483473.869    22483471.128
   9545335.040 5   7437923.291 5  22997436.131    22997435.028
  -3496825.276 9  -2724792.288 9  20124486.153    20124485.206
  11088750.691 5   8640585.975 5  22555154.834    22555152.283
  16967728.818 4  13221605.324 4  24814505.731    24814503.870
  -8095208.624 5  -6307938.369 4  23278264.792    23278261.304
 98 12  1  1  2  0.0000000  0  7G 7G15G13G19G27G31G26
 -16873079.012 8 -13147826.492 6  21728367.792    21728365.271
 -12489962.554 5  -9732415.441 4  22477537.526    22477535.020
   9634817.724 5   7507650.061 5  23014464.156    23014462.834
  11181451.857 5   8712820.624 5  22572795.453    22572792.625
  -3470773.314 9  -2704492.036 9  20129443.656    20129442.685
  17078092.543 4  13307603.223 4  24835507.360    24835505.882
  -8124056.838 5  -6330417.378 4  23272775.280    23272771.770
 98 12  1  1  2 30.0000000  0  7G 7G15G13G27G19G31G26
 -16947212.608 8 -13205592.825 6  21714260.339    21714257.947
 -12520584.034 5  -9756276.297 4  22471710.184    22471708.115
   9724549.382 5   7577570.833 5  23031539.440    23031538.037
  -3444162.734 9  -2683756.503 9  20134507.450    20134506.414
  11274464.718 5   8785298.155 5  22590495.212    22590492.509
  17188533.908 4  13393661.567 4  24856522.134    24856521.419
  -8152351.291 5  -6352464.882 4  23267390.624    23267387.600
 98 12  1  1  3  0.0000000  0  7G 7G15G13G19G27G31G26
 -17021018.336 8 -13263103.676 6  21700215.127    21700213.054
 -12550637.011 5  -9779694.160 4  22465991.240    22465989.387
   9814504.568 5   7647665.784 5  23048657.299    23048655.755
  11367793.704 5   8858022.021 5  22608255.046    22608252.439
  -3417018.999 9  -2662605.524 9  20139672.587    20139671.651
  17299046.668 4  13479775.549 4  24877551.701    24877551.485
  -8180103.163 5  -6374089.598 4  23262109.663    23262106.546
 98 12  1  1  3 30.0000000  0  7G 7G15G13G27G19G31G26
 -17094507.362 8 -13320367.745 6  21686230.517    21686228.582
 -12580134.003 5  -9802678.781 4  22460378.124    22460376.444
   9904650.987 5   7717909.750 5  23065811.476    23065809.739
  -3389373.832 9  -2641063.817 9  20144933.261    20144932.378
  11461417.542 5   8930975.631 5  22626071.091    22626068.439
  17409599.848 4  13565921.059 4  24898589.200    24898588.830
  -8207337.618 5  -6395311.135 4  23256927.270    23256924.328
 98 12  1  1  4  0.0000000  0  7G 7G15G13G19G27G31G26
 -17167680.358 8 -13377385.557 6  21672306.078    21672304.268
 -12609073.828 5  -9825229.241 4  22454870.914    22454869.490
   9994987.505 4   7788301.839 5  23083001.723    23082999.642
  11555327.513 5   9004152.202 5  22643941.727    22643939.217
  -3361225.575 9  -2619130.095 9  20150289.651    20150288.703
  17520176.861 4  13652085.153 4  24919631.333    24919631.330
  -8234045.332 5  -6416122.223 4  23251844.915    23251841.815
 98 12  1  1  4 30.0000000  0  7G 7G15G13G27G19G31G26
 -17240529.451 8 -13434150.978 6  21658443.273    21658441.352
 -12637450.477 5  -9847340.860 4  22449470.978    22449469.536
  10085522.413 4   7858848.516 4  23100229.798    23100227.570
  -3332568.483 9  -2596799.880 9  20155742.990    20155742.183
  11649511.976 5   9077542.664 5  22661864.523    22661862.076
  17630767.553 4  13738260.050 4  24940676.134    24940676.056
  -8260220.550 5  -6436518.392 4  23246863.265    23246860.192
 98 12  1  1  5  0.0000000  0  7G 7G15G13G19G27G31G26
 -17313048.222 7 -13490659.005 6  21644643.455    21644641.226
 -12665262.511 5  -9869012.524 4  22444178.317    22444177.120
  10176256.868 4   7929550.687 4  23117496.149    23117493.400
  11743945.439 5   9151127.149 5  22679834.538    22679832.127
  -3303394.690 9  -2574067.041 9  20161294.606    20161293.713
  17741359.387 4  13824435.829 4  24961720.417    24961721.166
  -8285873.316 5  -6456507.457 4  23241981.555    23241978.217
 98 12  1  1  5 30.0000000  0  7G 7G15G13G19G27G31G26
 -17385225.364 7 -13546900.830 6  21630908.638    21630906.145
 -12692500.673 5  -9890237.017 4  22438995.242    22438993.732
  10267202.716 4   8000417.581 4  23134802.387    23134799.904
  11838620.255 5   9224899.700 5  22697850.818    22697847.857
  -3273675.927 9  -2550909.553 9  20166949.904    20166948.900
  17851949.462 4  13910610.217 4  24982765.224    24982765.372
  -8310993.592 5  -6476081.587 4  23237201.346    23237197.644
 98 12  1  1  6  0.0000000  0  7G 7G15G13G19G31G27G26
 -17457043.559 7 -13602862.961 6  21617242.264    21617239.512
 -12719161.717 5  -9911011.809 4  22433921.942    22433920.226
  10358360.604 5   8071449.701 4  23152149.206    23152147.036
  11933538.599 5   9298862.009 5  22715913.186    22715910.039
  17962554.056 4  13996795.877 4  25003812.475    25003812.583
  -3243405.949 9  -2527322.544 9  20172710.000    20172709.123
  -8335585.960 5  -6495244.360 4  23232521.699    23232517.889
 98 12  1  1  6 30.0000000  0  7G 7G15G13G19G27G31G26
 -17528483.937 7 -13658530.694 6  21603647.514    21603644.610
 -12745242.218 5  -9931334.230 4  22428958.975    22428957.240
  10449721.812 5   8142640.253 4  23169534.632    23169532.892
  12028702.275 5   9373015.485 5  22734022.511    22734019.476
  -3212588.477 9  -2503308.915 9  20178574.338    20178573.517
  18073183.102 4  14083000.693 4  25024864.716    25024864.893
  -8359663.658 5  -6514006.091 4  23227939.682    23227936.462
 98 12  1  1  7  0.0000000  0  7G 7G15G13G19G31G27G26
 -17599553.030 7 -13713909.119 6  21590123.413    21590120.427
 -12770736.221 5  -9951199.638 4  22424107.418    22424105.828
  10541291.905 5   8213993.564 4  23186959.873    23186958.379
  12124122.511 5   9447368.877 5  22752180.279    22752177.296
  18183843.082 4  14169229.661 4  25045922.623    25045922.782
  -3181218.344 9  -2478864.642 9  20184543.898    20184542.973
  -8383222.799 5  -6532363.753 4  23223456.155    23223453.430
 98 12  1  1  7 30.0000000  0  7G 7G15G13G19G27G31G26
 -17670255.350 7 -13769001.749 6  21576669.054    21576666.371
 -12795639.297 5  -9970604.586 4  22419368.415    22419366.642
  10633072.268 5   8285510.717 4  23204425.127    23204423.694
  12219822.236 4   9521940.052 5  22770391.325    22770388.260
  -3149301.193 9  -2453994.125 9  20190617.447    20190616.377
  18294537.082 4  14255485.103 4  25066986.689    25066986.583
  -8406257.866 5  -6550313.045 4  23219072.624    23219069.821
 98 12  1  1  8  0.0000000  0  7G 7G15G13G19G31G27G26
 -17740601.201 7 -13823816.617 6  21563282.318    21563279.993
 -12819952.355 5  -9989549.779 4  22414741.830    22414739.597
  10725067.134 5   8357195.015 4  23221931.358    23221929.986
  12315810.088 5   9596735.743 5  22788657.204    22788654.305
  18405266.882 4  14341768.471 4  25088057.956    25088057.145
  -3116843.792 9  -2428702.634 9  20196793.901    20196792.891
  -8428768.622 5  -6567853.795 4  23214788.754    23214786.014
 98 12  1  1  8 30.0000000  0  7G 7G15G13G19G27G31G26
 -17810606.579 7 -13878366.185 6  21549960.379    21549958.457
 -12843670.208 5 -10008031.179 4  22410228.364    22410225.941
  10817289.911 5   8429056.902 4  23239480.840    23239479.342
  12412092.595 5   9671761.038 5  22806979.224    22806976.659
  -3083828.315 9  -2402976.278 9  20203076.479    20203075.448
  18516021.719 4  14428071.246 4  25109133.978    25109133.498
  -8450729.641 5  -6584966.178 4  23210609.465    23210606.671
 98 12  1  1  9  0.0000000  0  7G 7G15G13G19G31G27G26
 -17880287.145 8 -13932662.655 6  21536700.578    21536698.812
 -12866796.855 5 -10026051.901 4  22405827.320    22405824.954
  10909744.211 5   8501099.198 4  23257074.508    23257072.762
  12508663.006 5   9747010.670 5  22825356.087    22825353.618
  18626787.953 4  14514382.906 4  25130212.531    25130211.180
  -3050251.855 9  -2376812.792 9  20209465.881    20209464.683
  -8472139.869 5  -6601649.380 4  23206535.042    23206532.129
 98 12  1  1  9 30.0000000  0  7G 7G15G13G19G27G31G26
 -17949625.528 7 -13986692.486 6  21523505.865    21523504.079
 -12889335.975 5 -10043614.814 4  22401538.293    22401535.973
  11002423.671 5   8573316.938 4  23274710.794    23274709.111
  12605503.163 5   9822470.493 4  22843783.941    22843781.914
  -3016115.198 9  -2350212.787 9  20215961.853    20215960.577
  18737547.626 4  14600689.461 4  25151288.938    25151287.962
  -8493003.027 5  -6617906.288 4  23202564.943    23202562.219
 98 12  1  1 10  0.0000000  0  6G 7G15G13G19G26G27
 -18018632.268 7 -14040463.896 6  21510374.178    21510372.491
 -12911293.905 5 -10060724.851 4  22397359.934    22397357.518
  11095315.482 5   8645700.145 4  23292387.521    23292385.777
  12702590.124 5   9898122.634 4  22862259.152    22862257.185
  -8513320.925 5  -6633738.317 4  23198698.295    23198696.037
  -2981417.701 9  -2323175.765 9  20222564.565    20222563.407
 98 12  1  1 10 30.0000000  0  7G 7G15G13G19G27G31G26
 -18087306.392 7 -14093976.130 6  21497305.725    21497303.946
 -12932669.548 5 -10077381.152 4  22393292.425    22393289.989
  11188405.754 5   8718237.993 4  23310101.983    23310100.235
  12799914.157 5   9973959.511 4  22880779.160    22880777.507
  -2946160.700 9  -2295702.763 9  20229273.765    20229272.649
        -0.01014        -0.18214  25193434.678    25193430.564
  -8533100.080 5  -6649150.546 4  23194934.330    23194932.480
 98 12  1  1 11  0.0000000  0  7G 7G15G13G19G31G27G26
 -18155627.451 7 -14147213.252 6  21484304.656    21484302.614
 -12953452.766 5 -10093575.824 4  22389337.503    22389335.041
  11281685.560 5   8790923.533 4  23327852.260    23327850.848
  12897474.461 5  10049980.491 4  22899344.352    22899342.602
    110735.218 4     86287.206 4  25214506.876    25214504.035
  -2910343.117 9  -2267792.946 9  20236089.686    20236088.514
  -8552352.507 5  -6664152.342 4  23191270.661    23191268.438
 98 12  1  1 11 30.0000000  0  7G 7G15G13G19G27G31G26
 -18223593.597 7 -14200173.820 7  21471371.077    21471368.867
 -12973635.736 5 -10109302.765 4  22385496.751    22385494.328
  11375148.718 5   8863751.949 4  23345637.322    23345636.439
  12995279.302 5  10126192.015 4  22917955.972    22917954.167
  -2873972.863 9  -2239452.477 9  20243010.710    20243009.582
    221492.716 4    172592.012 4  25235584.683    25235579.036
  -8571068.350 5  -6678736.022 4  23187709.221    23187706.558
 98 12  1  1 12  0.0000000  0  6G 7G15G13G19G26G27
 -18291223.487 7 -14252872.372 7  21458501.693    21458499.563
 -12993224.662 5 -10124566.818 4  22381769.066    22381766.233
  11468776.217 5   8936708.424 4  23363454.156    23363453.333
  13093322.356 5  10202589.159 4  22936612.886    22936611.045
  -8589252.672 5  -6692905.532 4  23184248.737    23184245.680
  -2837073.643 9  -2210699.825 9  20250032.324    20250031.345
 98 12  1  1 12 30.0000000  0  6G 7G15G13G19G26G27
 -18358503.319 7 -14305298.157 7  21445698.838    21445696.961
 -13012216.094 5 -10139365.284 5  22378155.076    22378152.061
  11562568.839 5   9009793.566 4  23381302.427    23381301.527
  13191612.190 5  10279178.603 4  22955316.546    22955314.968
  -8606916.156 5  -6706669.200 4  23180887.301    23180884.537
  -2799654.345 9  -2181541.918 9  20257152.884    20257151.979
 98 12  1  1 13  0.0000000  0  6G 7G15G13G19G26G27
 -18425414.458 8 -14357436.651 7  21432965.963    21432964.386
 -13030600.789 5 -10153690.970 4  22374656.442    22374653.442
  11656539.092 5   9083017.112 4  23399184.482    23399183.562
  13290161.849 5  10355970.510 4  22974069.772    22974068.293
  -8624051.780 5  -6720021.549 4  23177626.389    23177624.135
  -2761723.108 9  -2151985.096 9  20264370.980    20264370.090
 98 12  1  1 13 30.0000000  0  6G 7G15G13G19G26G27
 -18491947.237 8 -14409280.321 7  21420305.044    21420303.539
 -13048379.039 5 -10167544.102 5  22371273.276    22371270.508
  11750690.409 5   9156381.744 4  23417101.017    23417100.130
  13388973.235 5  10432966.360 4  22992873.165    22992871.135
  -8640641.038 5  -6732948.157 4  23174469.542    23174467.730
  -2723289.962 9  -2122037.180 9  20271684.633    20271683.654
 98 12  1  1 14  0.0000000  0  6G 7G15G13G19G26G27
 -18558104.013 8 -14460831.003 7  21407715.911    21407714.152
 -13065556.626 5 -10180929.187 5  22368004.344    22368001.733
  11845015.915 5   9229882.110 4  23435050.537    23435049.693
  13488029.413 5  10510152.954 4  23011722.963    23011721.089
  -8656690.691 5  -6745454.295 4  23171415.487    23171413.597
  -2684344.957 9  -2091690.409 9  20279095.703    20279094.626
 98 12  1  1 14 30.0000000  0  6G 7G15G13G19G26G27
 -18623897.580 8 -14512098.662 8  21395195.766    21395193.800
 -13082141.145 5 -10193852.146 5  22364848.475    22364845.913
  11939505.683 5   9303510.471 4  23453031.161    23453030.322
  13587334.966 5  10587533.864 4  23030620.448    23030618.143
  -8672211.709 5  -6757548.512 4  23168462.020    23168460.310
  -2644883.878 9  -2060941.504 9  20286604.919    20286603.893
 98 12  1  1 15  0.0000000  0  6G 7G15G13G19G26G27
 -18689338.047 8 -14563091.179 8  21382742.620    21382740.640
 -13098130.496 5 -10206311.338 5  22361805.822    22361803.356
  12034148.484 5   9377258.079 4  23471041.186    23471040.099
  13686874.910 5  10665097.415 4  23049562.047    23049560.333
  -8687174.298 5  -6769207.595 4  23165614.694    23165612.746
  -2604903.189 9  -2029787.706 9  20294212.997    20294212.096
 98 12  1  1 15 30.0000000  0  6G 7G15G13G19G26G27
 -18754446.915 8 -14613825.308 8  21370352.702    21370350.761
 -13113532.506 5 -10218312.862 5  22358874.946    22358872.677
  12128921.551 5   9451107.194 4  23489076.002    23489074.761
  13786632.696 5  10742830.720 4  23068545.476    23068543.564
  -8701577.632 5  -6780430.895 4  23162874.043    23162871.430
  -2564396.563 9  -1998224.088 9  20301921.152    20301920.202
 98 12  1  1 16  0.0000000  0  6G 7G15G13G27G19G26
 -18819234.459 8 -14664309.054 8  21358024.107    21358022.182
 -13128348.761 5 -10229857.955 5  22356055.490    22356053.218
  12223814.853 5   9525049.998 4  23507133.713    23507132.360
  -2523349.111 9  -1966239.048 9  20309732.123    20309731.311
  13886605.089 5  10820731.247 4  23087569.482    23087567.634
  -8715443.190 5  -6791235.148 4  23160235.754    23160232.740
 98 12  1  1 16 30.0000000  0  7G 7G15G13G19G27G31G26
 -18883685.815 8 -14714530.834 8  21345759.460    21345757.691
 -13142576.370 5 -10240944.366 5  22353347.939    22353345.774
  12318823.215 5   9599082.454 4  23525213.367    23525211.909
  13986790.266 5  10898797.587 4  23106634.230    23106632.292
  -2481762.802 9  -1933834.120 9  20317645.605    20317644.968
        -0.15714        -0.29114  25446425.746    25446426.056
  -8728771.641 5  -6801620.877 4  23157699.214    23157696.098
 98 12  1  1 17  0.0000000  0  6G 7G15G13G19G26G27
 -18947779.722 8 -14764474.081 8  21333562.781    21333561.272
 -13156205.538 5 -10251564.457 5  22350754.539    22350752.347
  12413955.892 5   9673211.778 4  23543316.589    23543315.133
  14087175.841 5  10977020.073 4  23125737.408    23125735.268
  -8741553.224 5  -6811580.479 4  23155266.765    23155263.980
  -2439625.337 9  -1900999.719 9  20325664.079    20325663.533
 98 12  1  1 17 30.0000000  0  6G 7G15G13G27G19G26
 -19011491.430 9 -14814119.511 8  21321438.732    21321437.271
 -13169222.359 5 -10261707.394 5  22348277.437    22348275.438
  12509235.362 5   9747455.488 4  23561447.866    23561446.435
  -2396914.924 9  -1867718.868 9  20333791.746    20333791.052
  14187787.922 5  11055419.059 4  23144883.368    23144881.180
  -8753806.219 4  -6821128.197 4  23152935.142    23152932.226
 98 12  1  1 18  0.0000000  0  7G 7G15G13G19G31G27G26
 -19074806.819 9 -14863456.122 8  21309390.079    21309388.659
 -13181611.371 5 -10271361.131 5  22345919.830    22345918.067
  12604684.082 5   9821831.085 4  23579611.212    23579609.784
  14288633.910 5  11134000.310 4  23164073.747    23164071.482
        -0.77614        -0.47514  25509553.592    25509556.496
  -2353616.761 9  -1833980.031 9  20342031.210    20342030.292
  -8765518.571 4  -6830254.635 4  23150706.043    23150703.209
 98 12  1  1 18 30.0000000  0  6G 7G15G13G19G26G27
 -19137748.266 9 -14912501.348 8  21297412.822    21297411.134
 -13193381.283 5 -10280532.455 5  22343680.098    22343678.127
  12700300.912 5   9896337.677 4  23597806.294    23597805.301
  14389705.418 5  11212757.289 4  23183307.300    23183304.671
  -8776689.734 4  -6838959.371 4  23148580.151    23148576.942
  -2309762.881 9  -1799808.169 9  20350376.357    20350375.451
 98 12  1  1 19  0.0000000  0  6G 7G15G13G19G26G27
 -19200325.206 9 -14961262.542 8  21285504.837    21285502.983
 -13204524.678 5 -10289215.585 5  22341559.522    22341557.715
  12796105.986 5   9970990.949 4  23616037.592    23616036.359
  14491009.823 5  11291695.752 4  23202585.018    23202582.310
  -8787313.481 4  -6847237.558 4  23146558.337    23146555.526
  -2265361.194 9  -1765209.443 9  20358825.650    20358824.971
 98 12  1  1 19 30.0000000  0  6G 7G15G13G19G26G27
 -19262530.820 9 -15009734.390 8  21273667.467    21273665.483
 -13215032.253 5 -10297403.270 5  22339559.915    22339558.280
  12892101.115 5  10045792.320 4  23634304.824    23634303.620
  14592559.651 5  11370825.449 4  23221909.663    23221906.706
  -8797386.688 4  -6855086.747 4  23144641.325    23144638.571
  -2220423.577 9  -1730193.106 9  20367377.065    20367376.466
 98 12  1  1 20  0.0000000  0  6G 7G15G13G19G26G27
 -19324384.161 9 -15057931.738 8  21261896.868    21261894.956
 -13224922.794 5 -10305110.152 5  22337677.749    22337676.258
  12988249.492 4  10120713.099 4  23652601.340    23652599.913
  14694332.511 5  11450128.943 4  23241276.431    23241273.488
  -8806918.067 4  -6862513.736 4  23142827.389    23142824.819
  -2174989.235 9  -1694789.714 9  20376022.981    20376022.250
 98 12  1  1 20 30.0000000  0  6G 7G15G13G19G26G27
 -19385877.558 9 -15105848.612 8  21250195.030    21250193.089
 -13234199.512 5 -10312338.731 5  22335912.464    22335910.900
  13084532.822 4  10195739.042 4  23670923.642    23670921.698
  14796324.980 5  11529603.558 4  23260684.843    23260681.875
  -8815923.591 4  -6869530.962 4  23141113.462    23141111.681
  -2129065.209 9  -1659004.753 9  20384761.997    20384761.185
 98 12  1  1 21  0.0000000  0  6G 7G15G13G19G26G27
 -19447005.465 9 -15153480.685 8  21238562.764    21238560.943
 -13242874.930 5 -10319098.768 5  22334261.517    22334259.823
  13180920.562 4  10270846.347 4  23689265.684    23689263.363
  14898515.140 5  11609232.219 4  23280130.963    23280127.938
  -8824414.897 5  -6876147.498 4  23139497.703    23139496.290
  -2082642.416 9  -1622831.141 9  20393595.848    20393595.080
 98 12  1  1 21 30.0000000  0  6G 7G15G13G19G26G27
 -19507763.865 9 -15200824.832 7  21227000.664    21226998.880
 -13250952.213 5 -10325392.730 5  22332724.422    22332722.723
  13277383.014 4  10346011.864 4  23707621.665    23707619.800
  15000900.552 5  11689013.027 4  23299614.157    23299611.391
  -8832393.699 4  -6882364.694 4  23137979.306    23137977.561
  -2035710.800 9  -1586261.041 9  20402526.599    20402525.807
 98 12  1  1 22  0.0000000  0  6G 7G15G13G19G26G27
 -19568151.249 9 -15247879.874 7  21215509.227    21215507.496
 -13258424.269 5 -10331215.087 5  22331302.470    22331300.875
  13373937.013 4  10421248.734 4  23725995.230    23725993.638
  15103480.904 5  11768945.730 4  23319134.392    23319131.530
  -8839849.477 4  -6888174.344 4  23136560.526    23136558.275
  -1988241.276 9  -1549271.790 9  20411559.849    20411558.973
 98 12  1  1 22 30.0000000  0  6G 7G15G13G19G26G27
 -19628168.726 9 -15294646.676 7  21204088.174    21204086.733
 -13265282.673 5 -10336559.275 5  22329997.283    22329995.690
  13470601.321 4  10496571.557 4  23744389.562    23744388.521
  15206253.435 5  11849028.192 4  23338691.142    23338688.562
  -8846761.684 4  -6893560.438 4  23135245.097    23135242.522
  -1940214.873 9  -1511848.610 9  20420699.133    20420697.922
 98 12  1  1 23  0.0000000  0  6G 7G15G13G19G26G27
 -19687816.453 9 -15341125.363 7  21192737.560    21192736.253
 -13271521.949 5 -10341421.028 5  22328810.012    22328808.389
  13567380.894 4  10571984.190 4  23762806.344    23762805.190
  15309234.538 5  11929273.174 4  23358287.640    23358285.316
  -8853107.752 4  -6898505.385 4  23134037.394    23134034.824
  -1891640.006 9  -1473998.061 9  20429942.553    20429941.406
 98 12  1  1 23 30.0000000  0  6G 7G15G13G19G26G27
 -19747089.633 9 -15387312.198 7  21181458.245    21181456.827
 -13277130.410 5 -10345791.236 5  22327742.683    22327740.918
  13664295.124 4  10647501.747 4  23781248.979    23781247.579
  15412432.498 5  12009687.128 4  23377925.284    23377923.149
  -8858889.517 4  -6903010.616 4  23132937.140    23132934.683
  -1842524.500 9  -1435726.231 9  20439288.855    20439288.047
 98 12  1  1 24  0.0000000  0  6G 7G15G13G19G26G27
 -19805997.416 9 -15433214.308 7  21170248.499    21170247.001
 -13282111.470 5 -10349672.556 5  22326794.804    22326793.013
  13761333.436 4  10723115.983 4  23799714.838    23799713.329    15515844.011 5
   -879358.655 4   -214748.365    23397601.705
  -8864114.205 4  -6907081.752 4  23131942.798    23131940.788
  -1792871.886 9  -1397035.873 8  20448737.366    20448736.858
 98 12  1  1 24 30.0000000  0  6G 7G15G13G19G26G27
 -19864545.472 9 -15478836.114 7  21159107.201    21159105.626
 -13286472.057 5 -10353070.392 5  22325965.076    22325963.144
  13858470.667 4  10798807.297 4  23818199.584    23818198.030    15619473.216 4
   -798608.669 4   -195028.646    23417321.577
  -8868784.622 4  -6910720.992 4  23131054.159    23131051.996
  -1742703.886 9  -1357943.914 8  20458283.971    20458283.411
 98 12  1  1 25  0.0000000  0  6G 7G15G13G19G26G27
 -19922719.455 8 -15524166.435 7  21148037.055    21148035.291
 -13290213.918 5 -10355986.106 5  22325252.995    22325250.899
  13955699.186 4  10874569.748 4  23836701.230    23836699.941    15723321.841 4
   -717687.699 4   -175266.708    23437083.503
  -8872924.149 4  -6913946.546 4  23130266.213    23130264.207
  -1692018.132 9  -1318448.515 8  20467929.045    20467928.241
 98 12  1  1 25 30.0000000  0  6G 7G15G13G19G26G27
 -19980519.179 8 -15569205.122 8  21137038.169    21137036.224
 -13293339.843 5 -10358421.869 5  22324657.971    22324656.185
  14053019.947 4  10950404.070 4  23855220.767    23855219.218    15827368.406 4
   -636612.495 4   -155467.493    23456883.102
  -8876541.496 4  -6916765.216 4  23129577.789    23129576.007
  -1640803.881 9  -1278541.301 8  20477674.822    20477674.020
 98 12  1  1 26  0.0000000  0  6G 7G15G13G19G26G27
 -20037937.291 8 -15613946.449 8  21126111.744    21126109.779
 -13295847.270 5 -10360375.683 5  22324180.587    22324179.273
  14150429.726 4  11026307.774 4  23873756.818    23873755.501    15931623.878 4
   -555374.500 4   -135628.255    23476722.379
  -8879618.683 4  -6919162.985 4  23128992.280    23128990.564
  -1589049.076 9  -1238212.878 8  20487523.522    20487522.732
 98 12  1  1 26 30.0000000  0  6G 7G15G13G19G26G27
 -20094966.293 8 -15658384.571 8  21115259.325    21115257.485
 -13297734.692 5 -10361846.378 5  22323821.306    22323819.859
  14247955.720 4  11102302.042 4  23892315.426    23892313.624    16036085.652 4
   -473975.751 4   -115749.871    23496600.836
  -8882155.361 4  -6921139.582 4  23128509.601    23128507.753
  -1536766.835 9  -1197473.464 8  20497472.430    20497471.631
 98 12  1  1 27  0.0000000  0  6G 7G15G13G19G26G27
 -20151604.400 8 -15702518.102 8  21104481.292    21104479.621
 -13298997.972 5 -10362830.727 5  22323580.899    22323579.509
  14345597.256 4  11178386.343 4  23910896.301    23910894.122    16140739.878 4
   -392427.040 4    -95834.619    23516515.832
  -8884159.102 5  -6922700.898 4  23128128.195    23128126.658
  -1483943.246 9  -1156312.221 9  20507524.422    20507523.591
 98 12  1  1 27 30.0000000  0  6G 7G15G13G19G26G27
 -20207868.938 8 -15746360.539 8  21093774.423    21093772.861
 -13299638.777 5 -10363330.033 4  22323458.842    22323457.526
  14443335.776 4  11254546.215 4  23929495.640    23929493.054    16245583.327 4
   -310730.882 4    -75883.409    23536466.640
  -8885629.248 5  -6923846.426 4  23127848.451    23127846.655
  -1430587.000 9  -1114735.919 9  20517677.898    20517677.046
 98 12  1  1 28  0.0000000  0  6G 7G15G13G19G26G27
 -20263759.776 9 -15789911.787 8  21083138.815    21083137.377
 -13299654.457 5 -10363342.230 4  22323456.018    22323454.756
  14541161.026 4  11330773.662 4  23948111.105    23948108.355    16350616.180 4
   -228887.139 4    -55895.972    23556453.665
  -8886580.149 5  -6924587.352 5  23127667.728    23127665.368
  -1376705.799 9  -1072750.562 9  20527931.147    20527930.338
 98 12  1  1 28 30.0000000  0  6G 7G15G13G19G26G27
 -20319293.341 9 -15833184.643 8  21072571.082    21072569.601
 -13299052.551 5 -10362873.196 4  22323570.529    22323569.242
  14639050.695 4  11407051.311 4  23966738.871    23966736.058    16455811.134 4
   -146917.083 4    -35877.902    23576471.846
  -8887031.117 5  -6924938.714 5  23127581.954    23127579.570
  -1322318.999 9  -1030371.234 9  20538280.509    20538279.777
 98 12  1  1 29  0.0000000  0  6G 7G15G13G19G26G27
 -20374458.300 9 -15876170.274 9  21062073.602    21062071.823
 -13297820.185 5 -10361912.896 4  22323805.170    22323803.729
  14736987.432 4  11483365.647 4  23985375.383    23985372.972    16561171.449 4
    -64818.162 4    -15828.072    23596521.207
  -8886962.370 4  -6924885.107 5  23127594.996    23127592.083
  -1267411.749 9   -987586.357 9  20548728.966    20548728.301
 98 12  1  1 29 30.0000000  0  6G 7G15G13G19G26G27
 -20429246.769 9 -15918862.537 9  21051647.776    21051645.892
 -13295951.363 6 -10360456.657 4  22324160.727    22324159.505
  14834981.425 4  11559724.586 4  24004022.355    24004020.880    16666703.135 4
     17414.284 4      4254.283    23616603.278
  -8886362.101 4  -6924417.331 5  23127709.291    23127706.038
  -1211998.502 9   -944407.199 9  20559273.880    20559273.157
 98 12  1  1 30  0.0000000  0  6G 7G15G13G19G26G27
 -20483650.984 9 -15961255.382 9  21041294.912    21041293.031
 -13293444.990 6 -10358503.627 4  22324637.628    22324636.554
  14933045.421 4  11636138.073 4  24022683.808    24022682.236    16772401.401 4
     99776.530 4     24367.921    23636716.815
  -8885210.639 4  -6923520.058 5  23127928.243    23127925.046
  -1156083.909 9   -900837.382 9  20569914.108    20569913.218
 98 12  1  1 30 30.0000000  0  6G 7G15G13G19G26G27
 -20537664.623 9 -16003343.879 9  21031016.419    21031014.261
 -13290298.130 6 -10356051.515 4  22325236.460    22325235.524
  15031189.013 4  11712613.591 4  24041359.916    24041358.640    16878277.943 4
    182277.688 4     44515.624    23656864.594
  -8883482.504 4  -6922173.428 5  23128257.030    23128253.935
  -1099673.968 9   -856881.580 9  20580648.599    20580647.582
 98 12  1  1 31  0.0000000  0  6G 7G15G13G19G26G27
 -20591290.942 9 -16045130.566 9  21020811.765    21020809.726
 -13286519.762 6 -10353107.315 4  22325955.265    22325954.518
  15129412.593 4  11789151.429 4  24060051.468    24060050.032    16984337.010 4
    264921.068 4     64697.910    23677046.946
  -8881177.251 4  -6920377.094 5  23128695.709    23128692.856
  -1042772.466 9   -812542.742 9  20591476.478    20591475.509
 98 12  1  1 31 30.0000000  0  6G 7G15G13G19G26G27
 -20644535.631 9 -16086619.882 9  21010679.622    21010677.789
 -13282119.903 6 -10349678.837 4  22326792.700    22326791.541
  15227713.603 4  11865749.604 4  24078757.703    24078755.193    17090576.190 4
    347704.805 4     84914.465    23697263.692
  -8878310.827 5  -6918143.481 5  23129241.294    23129238.910
   -985383.343 9   -767823.937 9  20602397.294    20602396.150
 98 12  1  1 32  0.0000000  0  6G 7G15G13G19G26G27
 -20697407.404 9 -16127818.620 9  21000618.356    21000616.530
 -13277112.122 5 -10345776.652 4  22327745.844    22327744.324
  15326077.049 4  11942396.420 4  24097475.183    24097473.241    17196989.615 4
    430624.316 4    105164.314    23717513.807
  -8874896.487 5  -6915482.922 5  23129890.814    23129888.754
   -927509.465 9   -722727.402 9  20613410.446    20613409.151
 98 12  1  1 32 30.0000000  0  6G 7G15G13G19G26G27
 -20749908.715 9 -16168728.689 9  20990627.554    20990625.703
 -13271491.735 5 -10341397.112 5  22328815.437    22328813.795
  15424493.853 4  12019084.816 4  24116203.135    24116200.875    17303589.286 4
    513688.952 4    125449.556    23737799.457
  -8870950.514 5  -6912408.107 5  23130641.489    23130639.363
   -869132.866 9   -677239.142 9  20624519.202    20624517.850
 98 12  1  1 33  0.0000000  0  6G15G13G19G26G 7G27
 -13265263.703 5 -10336544.086 5  22330000.783    22329998.857
  15522951.320 4  12095804.913 4  24134938.710    24134936.482    17410367.358 4
    596892.611 4    145768.733    23758118.725
  -8866500.700 4  -6908940.686 5  23131488.395    23131486.138
 -20802044.456 9 -16209353.900 9  20980706.283    20980704.530
   -810230.820 9   -631341.440 9  20635727.835    20635726.754
 98 12  1  1 33 30.0000000  0  6G15G13G19G26G 7G27
 -13258425.944 5 -10331215.944 5  22331302.106    22331299.997
  15621446.688 4  12172554.539 4  24153681.772    24153679.970    17517322.767 4
    680234.450 4    166121.407    23778471.485
  -8861562.992 5  -6905093.089 5  23132427.724    23132425.686
 -20853808.966 9 -16249689.843 9  20970855.608    20970853.892
   -750798.668 9   -585030.668 9  20647037.393    20647036.422
 98 12  1  1 34  0.0000000  0  6G15G13G19G26G 7G27
 -13250976.771 5 -10325411.375 5  22332719.599    22332717.455
  15719981.784 4  12249335.116 4  24172432.429    24172430.839    17624454.123 4
    763713.382 4    186507.874    23798857.833
  -8856142.044 5  -6900868.939 4  23133459.244    23133457.423
 -20905207.155 9 -16289740.341 9  20961074.746    20961073.066
   -690842.023 9   -538311.200 9  20658446.702    20658445.652
 98 12  1  1 34 30.0000000  0  6G15G13G19G26G 7G27
 -13242904.693 5 -10319121.427 5  22334255.502    22334253.505
  15818554.906 4  12326145.329 4  24191190.889    24191188.187    17731760.733 4
    847328.880 4    206927.848    23819277.679
  -8850234.324 5  -6896265.491 4  23134583.446    23134581.629
 -20956223.651 9 -16329493.413 9  20951366.674    20951365.284
   -630348.677 8   -491173.528 9  20669958.122    20669956.889
 98 12  1  1 35  0.0000000  0  6G15G13G19G26G 7G27
 -13234206.806 5 -10312343.832 5  22335910.515    22335908.497
  15917178.570 4  12402994.923 4  24209958.288    24209955.546    17839230.117 4
    931071.215 4    227378.343    23839728.153
  -8843827.764 5  -6891273.333 4  23135802.583    23135800.915
 -21006849.078 9 -16368941.759 9  20941732.809    20941731.734
   -569331.286 8   -443627.508 9  20681569.385    20681568.112
 98 12  1  1 35 30.0000000  0  6G15G26G13G19G 7G27
 -13224871.101 5 -10305069.236 4  22337687.034    22337684.710
  -8836887.864 5  -6885865.582 4  23137123.181    23137121.187
  16015860.649 4  12479890.027 4  24228737.005    24228734.171    17946856.862 4
   1014936.177 4    247859.294    23860208.907
 -21057074.879 9 -16408078.709 9  20932175.184    20932174.312
   -507803.431 8   -395683.723 9  20693277.707    20693276.422
 98 12  1  1 36  0.0000000  0  6G15G26G13G19G 7G27
 -13214882.824 5 -10297286.146 4  22339587.605    22339585.353
  -8829385.132 5  -6880019.273 4  23138550.794    23138549.102
  16114608.035 4  12556836.025 4  24247528.251    24247525.894    18054644.496 4
   1098926.510 4    268370.306    23880720.240
 -21106893.288 9 -16446898.212 9  20922695.033    20922694.300
   -445760.728 8   -347338.759 8  20705083.976    20705082.457
 98 12  1  1 36 30.0000000  0  6G15G26G13G19G 7G27
 -13204256.935 5 -10289006.216 4  22341609.535    22341607.288
  -8821320.970 5  -6873735.487 4  23140085.339    23140083.794
  16213387.842 4  12633807.274 4  24266325.389    24266323.380    18162568.251 4
   1183022.902 4    288907.729    23901257.178
 -21156322.361 9 -16485414.338 9  20913288.803    20913287.943
   -383216.738 8   -298603.183 8  20716985.634    20716984.225
 98 12  1  1 37  0.0000000  0  6G15G26G13G19G 7G27
 -13193005.457 5 -10280238.822 4  22343750.662    22343748.500
  -8812707.714 5  -6867023.837 4  23141724.153    23141722.674
  16312182.812 4  12710790.342 4  24285125.357    24285123.953    18270619.642 4
   1267218.752 4    309469.333    23921818.737
 -21205382.438 9 -16523642.937 9  20903953.044    20903951.928
   -320192.402 8   -249493.308 8  20728978.842    20728977.797
 98 12  1  1 37 30.0000000  0  6G15G13G19G26G 7G27
 -13181125.416 5 -10270981.637 4  22346011.370    22346009.438
  16410979.189 4  12787774.511 4  24303925.751    24303924.724    18378808.895 4
   1351522.023 4    330057.360    23942406.199
  -8803546.464 5  -6859885.174 4  23143467.584    23143465.995
 -21254069.761 9 -16561581.077 9  20894688.062    20894686.853
   -256680.365 8   -200003.409 8  20741064.759    20741063.871
 98 12  1  1 38  0.0000000  0  6G15G26G13G19G 7G27
 -13168616.994 5 -10261234.809 5  22348391.848    22348389.926
  -8793857.263 5  -6852335.123 4  23145311.453    23145309.900
  16509773.770 4  12864757.273 4  24322725.597    24322725.184    18487156.642 4
   1435948.793 4    350675.300    23963023.887
 -21302380.163 9 -16599225.512 9  20885494.816    20885493.574
   -192675.302 8   -150129.338 8  20753244.577    20753243.611
 98 12  1  1 38 30.0000000  0  6G15G26G13G19G 7G27
 -13155479.295 5 -10250997.634 4  22350891.847    22350889.650
  -8783654.459 5  -6844384.857 4  23147252.980    23147251.494
  16608564.622 4  12941737.130 4  24341525.311    24341523.944    18595664.619 4
   1520500.414 4    371323.879    23983672.115
 -21350310.193 9 -16636573.551 8  20876373.906    20876372.620
   -128175.405 8    -99869.689 7  20765518.428    20765517.374
 98 12  1  1 39  0.0000000  0  6G15G26G13G19G 7G27
 -13141712.385 5 -10240270.168 4  22353511.537    22353509.249
  -8772951.865 5  -6836045.153 4  23149289.558    23149287.727
  16707367.695 4  13018726.519 4  24360327.038    24360325.102    18704340.115 4
   1605182.569 4    392003.877    24004353.352
 -21397851.582 9 -16673618.748 8  20867326.905    20867325.972
    -63181.326 9    -49224.957 7  20777886.184    20777885.517
 98 12  1  1 39 30.0000000  0  7G15G26G 4G13G19G 7G27
 -13127313.382 5 -10229050.154 4  22356251.452    22356249.167
  -8761739.366 5  -6827308.122 4  23151423.075    23151421.117
        -0.34314        -0.36114  25237116.688    25237114.226
  16806197.923 4  13095737.075 4  24379134.593    24379131.247    18813185.238 4
  14659623.044 4                  24025068.888    24025065.349
 -21445008.384 9 -16710364.271 8  20858353.131    20858352.476
      2309.780 9      1807.070 7  20790348.712    20790348.210
 98 12  1  1 40  0.0000000  0  7G15G26G 4G13G19G 7G27
 -13112286.577 5 -10217340.942 4  22359110.863    22359108.972
  -8750018.746 5  -6818175.151 4  23153653.221    23153651.434
   -110734.658 4    -86286.424 4  25216045.391    25216041.672
  16905055.317 4  13172768.801 4  24397946.636    24397942.410    18922180.037 4
  14744554.013 4                  24045809.682    24045806.789
 -21491787.260 9 -16746815.304 8  20849451.526    20849450.762
     68290.871 9     53220.903 7  20802904.580    20802903.968
 98 12  1  1 40 30.0000000  0  7G15G26G 4G13G19G 7G27
 -13096635.134 5 -10205144.996 4  22362089.137    22362087.587
  -8737778.235 5  -6808637.067 4  23155982.249    23155980.618
   -221579.765 4   -172658.900 4  25194953.211    25194948.997
  17003934.629 4  13249817.599 4  24416762.698    24416758.056    19031296.346 4
  14829579.659 4                  24066573.915    24066570.569
 -21538196.125 9 -16782978.014 8  20840620.252    20840619.538
    134758.189 8    105013.609 7  20815552.881    20815552.015
 98 12  1  1 41  0.0000000  0  7G15G26G 4G13G19G 7G27
 -13080361.312 5 -10192464.075 4  22365185.804    22365184.413
  -8725000.455 5  -6798680.333 4  23158413.574    23158412.123
   -332537.486 4   -259119.141 4  25173837.242    25173833.864
  17102842.067 4  13326888.331 4  24435583.973    24435579.236    19140527.790 4
  14914695.018 4                  24087359.477    24087356.928
 -21584233.650 9 -16818851.373 8  20831859.533    20831858.692
    201705.462 8    157180.306 7  20828292.625    20828291.739
 98 12  1  1 41 30.0000000  0  7G15G26G 4G13G19G 7G27
 -13063470.952 5 -10179302.736 4  22368400.013    22368398.440
  -8711681.164 5  -6788301.642 4  23160948.362    23160946.874
   -443623.568 4   -345679.410 4  25152698.306    25152693.566
  17201764.561 4  13403970.781 4  24454408.101    24454403.262    19249855.158 4
  14999885.127 4                  24108164.285    24108161.139
 -21629901.633 9 -16854436.775 8  20823169.164    20823168.142
    269123.322 9    209713.697 7  20841121.741    20841121.176
 98 12  1  1 42  0.0000000  0  7G15G26G 4G13G19G 7G27
 -13045961.800 5 -10165659.220 5  22371731.969    22371730.378
  -8697820.235 5  -6777500.898 4  23163586.003    23163584.566
   -554832.207 4   -432335.242 4  25131535.541    25131531.753
  17300694.592 4  13481059.120 4  24473233.863    24473229.371    19359276.405 4
  15085148.372 4                  24128986.346    24128983.356
 -21675181.849 9 -16889720.019 8  20814552.704    20814551.624
    337013.273 9    262614.955 8  20854040.677    20854040.194
 98 12  1  1 42 30.0000000  0  7G15G26G 4G13G19G 7G27
 -13027840.057 5 -10151538.364 5  22375180.494    22375178.971
  -8683437.525 5  -6766293.569 4  23166322.815    23166321.376
   -666153.401 4   -519078.827 4  25110350.768    25110347.720
  17399625.191 4  13558147.891 4  24492059.881    24492055.676    19468804.844 4
  15170495.143 4                  24149829.248    24149825.689
 -21720072.460 9 -16924699.676 8  20806010.175    20806009.022
    405365.951 8    315876.774 8  20867047.908    20867047.254
 98 12  1  1 43  0.0000000  0  7G15G26G 4G13G19G 7G27
 -13009098.790 5 -10136934.769 5  22378746.854    22378745.414
  -8668546.512 5  -6754690.168 4  23169156.636    23169154.940
   -777561.756 4   -605890.372 4  25089150.523    25089147.282
  17498558.023 4  13635238.404 4  24510886.092    24510883.024    19578468.219 4
  15255947.062 4                  24170697.239    24170694.336
 -21764557.127 9 -16959363.012 8  20797544.873    20797543.890
    474199.687 8    369513.444 8  20880146.612    20880145.786
 98 12  1  1 43 30.0000000  0  7G15G26G 4G13G19G 7G27
 -12989743.208 5 -10121852.491 5  22382430.202    22382428.701
  -8653172.489 5  -6742710.398 4  23172082.220    23172080.469
   -889057.105 4   -692769.722 4  25067933.844    25067930.298
  17597471.854 4  13712314.116 4  24529708.510    24529706.668    19688267.714 4
  15341505.049 4                  24191591.615    24191588.310
 -21808644.905 9 -16993717.082 8  20789155.127    20789154.344
    543513.198 8    423523.964 8  20893336.568    20893335.757
 98 12  1  1 44  0.0000000  0  7G15G26G 4G13G19G 7G27
 -12969772.449 5 -10106290.850 5  22386230.411    22386228.846
  -8637332.793 5  -6730367.762 4  23175096.501    23175094.700
  -1000634.591 4   -779713.112 4  25046700.889    25046697.520
  17696364.262 4  13789373.126 4  24548527.082    24548525.716    19798214.555 4
  15427177.838 4                  24212513.587    24212510.786
 -21852334.165 9 -17027760.621 9  20780841.417    20780840.678
    613305.963 8    477907.933 8  20906617.739    20906616.931
 98 12  1  1 44 30.0000000  0  7G15G26G 4G13G19G 7G27
 -12949185.713 5 -10090249.227 5  22390147.779    22390146.345
  -8621036.284 5  -6717669.175 4  23178197.593    23178196.075
  -1112302.666 4   -866727.094 4  25025451.090    25025447.198
  17795226.800 4  13866408.864 4  24567339.798    24567338.809    19908308.399 4
  15512965.193 4                  24233463.659    24233461.418
 -21895630.645 9 -17061498.096 9  20772602.316    20772601.563
    683587.689 8    532672.907 8  20919991.953    20919990.998
 98 12  1  1 45  0.0000000  0  7G15G26G 4G13G19G 7G27
 -12927975.462 5 -10073721.745 5  22394183.942    22394182.671
  -8604252.324 5  -6704590.753 4  23181391.748    23181390.316
  -1224067.086 4   -953816.138 4  25004182.562    25004178.856
  17894057.790 4  13943420.028 4  24586146.671    24586145.754    20018538.145 4
  15598858.433 4                  24254439.714    24254436.746
 -21938534.853 9 -17094929.906 9  20764437.971    20764437.244
    754367.016 8    587825.626 8  20933460.853    20933459.858
 98 12  1  1 45 30.0000000  0  7G15G26G 4G13G19G 7G27
 -12906135.401 5 -10056703.503 5  22398340.010    22398338.701
  -8586956.092 5  -6691113.157 4  23184683.008    23184681.587
  -1335933.548 4  -1040984.667 4  24982894.939    24982891.658
  17992866.247 4  14020413.624 4  24604949.171    24604948.121    20128897.265 4
  15684852.493 4                  24275440.674    24275438.141
 -21981045.137 9 -17128054.767 9  20756348.551    20756347.715
    825629.539 8    643354.858 8  20947021.722    20947020.578
